FW6030 Weather Reports


time (UTC)temp
F
wind
direction
speed
knots
gust
knots
rain 1hr
in
rain 24hr
in
rain mn
in
humidity
%
barometer
mb
20260510095120 70 360 5.2 10.4 0.00 0.00 0.00 87 1011.8
20260510095041 70 360 4.3 13.0 0.00 0.00 0.00 87 1011.9
20260510094921 70 360 4.3 13.0 0.00 0.00 0.00 87 1011.8
20260510094822 70 360 4.3 13.0 0.00 0.00 0.00 86 1011.8
20260510094722 70 360 4.3 13.0 0.00 0.00 0.00 87 1011.9
20260510094642 70 360 5.2 13.9 0.00 0.00 0.00 87 1011.8
20260510094521 70 360 5.2 13.9 0.00 0.00 0.00 87 1011.9
20260510094426 70 360 6.1 13.9 0.00 0.00 0.00 86 1011.8
20260510094326 70 360 5.2 13.9 0.00 0.00 0.00 86 1011.9
20260510094227 70 360 4.3 13.9 0.00 0.00 0.00 86 1011.9
20260510094147 70 360 4.3 13.9 0.00 0.00 0.00 86 1011.9
20260510094047 70 360 5.2 13.9 0.00 0.00 0.00 86 1011.9
20260510093927 70 360 5.2 13.9 0.00 0.00 0.00 86 1012.0
20260510093827 70 360 5.2 13.0 0.00 0.00 0.00 86 1012.0
20260510093731 70 360 6.1 13.0 0.00 0.00 0.00 86 1011.9
20260510093632 70 360 5.2 13.0 0.00 0.00 0.00 86 1012.0
20260510093533 70 360 6.1 13.0 0.00 0.00 0.00 86 1012.0
20260510093432 70 360 7.0 13.0 0.00 0.00 0.00 86 1011.9
20260510093333 70 360 7.0 13.0 0.00 0.00 0.00 86 1011.9
20260510093234 70 360 7.0 13.0 0.00 0.00 0.00 86 1011.8
20260510093119 70 360 6.1 13.0 0.00 0.00 0.00 86 1011.8
20260510093018 70 360 4.3 13.0 0.00 0.00 0.00 86 1011.9
20260510092919 70 360 4.3 13.0 0.00 0.00 0.00 86 1011.8
20260510092842 70 360 4.3 13.0 0.00 0.00 0.00 86 1011.8
20260510092721 70 360 5.2 13.0 0.00 0.00 0.00 86 1011.8
20260510092622 71 360 5.2 13.0 0.00 0.00 0.00 86 1011.7
20260510092522 71 360 6.1 13.0 0.00 0.00 0.00 86 1011.8
20260510092428 71 360 5.2 13.0 0.00 0.00 0.00 86 1011.8
20260510092327 71 360 5.2 13.0 0.00 0.00 0.00 86 1011.9
20260510092228 71 360 4.3 13.0 0.00 0.00 0.00 86 1011.9
20260510092129 71 360 4.3 13.0 0.00 0.00 0.00 86 1011.9
20260510092029 71 360 5.2 13.0 0.00 0.00 0.00 86 1011.9
20260510091930 71 360 5.2 13.0 0.00 0.00 0.00 85 1011.9
20260510091830 71 360 5.2 13.0 0.00 0.00 0.00 85 1011.9
20260510091751 71 360 5.2 13.0 0.00 0.00 0.00 86 1012.0
20260510091633 71 360 5.2 13.0 0.00 0.00 0.00 86 1011.9
20260510091534 71 360 5.2 13.0 0.00 0.00 0.00 86 1011.9
20260510091434 71 360 6.1 13.0 0.00 0.00 0.00 86 1011.9
20260510091335 71 360 6.1 13.0 0.00 0.00 0.00 85 1011.9
20260510091235 71 360 7.0 13.0 0.00 0.00 0.00 85 1011.9
20260510091155 71 360 7.0 13.0 0.00 0.00 0.00 85 1012.0
20260510091019 71 360 6.1 10.4 0.00 0.00 0.00 85 1011.9
20260510090920 71 360 5.2 8.7 0.00 0.00 0.00 85 1011.9
20260510090820 71 360 4.3 9.6 0.00 0.00 0.00 85 1011.9
20260510090722 71 360 4.3 9.6 0.00 0.00 0.00 85 1011.8
20260510090624 71 360 3.5 9.6 0.00 0.00 0.00 85 1012.0
20260510090524 71 360 2.6 9.6 0.00 0.00 0.00 85 1011.9
20260510090445 71 360 3.5 9.6 0.00 0.00 0.00 85 1011.9
20260510090328 71 360 3.5 9.6 0.00 0.00 0.00 85 1011.9
20260510090228 71 360 3.5 9.6 0.00 0.00 0.00 85 1011.9
20260510090129 71 360 4.3 9.6 0.00 0.00 0.00 85 1011.9
20260510090031 71 360 4.3 9.6 0.00 0.00 0.00 85 1011.8
20260510085932 71 360 4.3 9.6 0.00 0.00 0.00 85 1011.8
20260510085833 71 360 4.3 9.6 0.00 0.00 0.00 85 1011.8
20260510085717 71 360 2.6 7.0 0.00 0.01 0.00 85 1011.8
20260510085617 71 360 2.6 7.0 0.00 0.01 0.00 85 1011.9
20260510085518 71 360 2.6 7.0 0.00 0.01 0.00 85 1011.9
20260510085418 71 360 2.6 7.0 0.00 0.01 0.00 85 1012.0
20260510085339 71 360 2.6 7.0 0.00 0.01 0.00 85 1011.9
20260510085238 71 360 3.5 8.7 0.00 0.01 0.00 85 1011.9
20260510085138 71 360 2.6 8.7 0.00 0.01 0.00 85 1011.9
20260510085017 71 360 2.6 8.7 0.00 0.01 0.00 84 1011.9
20260510084922 71 360 2.6 8.7 0.00 0.01 0.00 84 1011.9
20260510084842 71 360 1.7 8.7 0.00 0.01 0.00 84 1011.9
20260510084743 71 360 1.7 8.7 0.00 0.01 0.00 84 1011.9
20260510084616 71 360 1.7 8.7 0.00 0.01 0.00 84 1011.9
20260510084517 71 360 2.6 8.7 0.00 0.01 0.00 84 1011.9
20260510084437 71 360 2.6 8.7 0.00 0.01 0.00 84 1011.9
20260510084337 71 360 3.5 8.7 0.00 0.01 0.00 84 1011.9
20260510084237 71 360 3.5 8.7 0.00 0.01 0.00 84 1011.9
20260510084116 71 360 3.5 8.7 0.00 0.01 0.00 84 1011.9
20260510084021 71 360 3.5 7.8 0.00 0.01 0.00 84 1012.0
20260510083920 71 360 3.5 7.8 0.00 0.01 0.00 84 1011.9
20260510083820 71 360 3.5 7.8 0.00 0.01 0.00 84 1012.0
20260510083722 71 360 3.5 7.8 0.00 0.01 0.00 84 1012.0
20260510083622 72 360 2.6 7.8 0.00 0.01 0.00 84 1011.9
20260510083543 72 360 3.5 7.8 0.00 0.01 0.00 84 1011.9
20260510083416 72 360 3.5 7.8 0.00 0.01 0.00 84 1012.0
20260510083321 72 360 3.5 7.8 0.00 0.01 0.00 84 1012.0
20260510083220 72 360 2.6 7.8 0.00 0.01 0.00 84 1012.0
20260510083120 72 360 2.6 7.8 0.00 0.01 0.00 84 1012.0
20260510083021 72 360 3.5 7.8 0.00 0.01 0.00 84 1012.1
20260510082922 72 360 3.5 7.8 0.00 0.01 0.00 84 1012.0
20260510082840 72 360 5.2 7.8 0.00 0.01 0.00 84 1012.1
20260510082718 72 360 4.3 7.0 0.00 0.01 0.00 83 1012.0
20260510082643 72 360 4.3 7.0 0.00 0.01 0.00 83 1012.1
20260510082522 72 360 4.3 9.6 0.00 0.01 0.00 83 1012.0
20260510082423 72 360 3.5 9.6 0.00 0.01 0.00 83 1012.1
20260510082323 72 360 3.5 9.6 0.00 0.01 0.00 83 1012.0
20260510082225 72 360 2.6 9.6 0.00 0.01 0.00 83 1012.0
20260510082125 72 360 2.6 9.6 0.00 0.01 0.00 83 1012.1
20260510082025 72 360 2.6 9.6 0.00 0.01 0.00 83 1012.1
20260510081930 72 360 2.6 9.6 0.00 0.01 0.00 83 1012.1
20260510081830 72 360 3.5 9.6 0.00 0.01 0.00 83 1012.1
20260510081731 72 360 4.3 9.6 0.00 0.01 0.00 83 1012.1
20260510081630 72 360 4.3 9.6 0.00 0.01 0.00 83 1012.2
20260510081531 72 360 5.2 9.6 0.00 0.01 0.00 83 1012.2
20260510081431 72 360 5.2 9.6 0.00 0.01 0.00 83 1012.2
20260510081331 72 360 4.3 9.6 0.00 0.01 0.00 83 1012.1
20260510081216 72 360 3.5 9.6 0.00 0.01 0.00 83 1012.1
20260510081116 72 360 3.5 9.6 0.00 0.01 0.00 83 1012.1
20260510081017 72 360 4.3 9.6 0.00 0.01 0.00 83 1012.1
20260510080917 72 360 4.3 9.6 0.00 0.01 0.00 83 1012.3
20260510080818 72 360 4.3 9.6 0.00 0.01 0.00 83 1012.1
20260510080718 72 360 3.5 9.6 0.00 0.01 0.00 83 1012.2
20260510080623 72 360 2.6 9.6 0.00 0.01 0.00 83 1012.1
20260510080523 72 360 2.6 9.6 0.00 0.01 0.00 83 1012.1
20260510080424 72 360 2.6 9.6 0.00 0.01 0.00 83 1012.1
20260510080325 72 360 3.5 9.6 0.00 0.01 0.00 83 1012.1
20260510080224 72 360 3.5 8.7 0.00 0.01 0.00 83 1012.1
20260510080125 72 360 3.5 8.7 0.00 0.01 0.00 83 1012.1
20260510080030 72 360 2.6 9.6 0.00 0.01 0.00 83 1012.1
20260510075931 72 360 2.6 9.6 0.00 0.01 0.00 83 1012.2
20260510075851 72 360 3.5 9.6 0.00 0.01 0.00 83 1012.1
20260510075732 72 360 3.5 9.6 0.00 0.01 0.00 83 1012.0
20260510075632 72 360 3.5 10.4 0.00 0.01 0.00 83 1012.1
20260510075553 72 360 3.5 10.4 0.00 0.01 0.00 83 1012.1
20260510075432 72 360 3.5 10.4 0.00 0.01 0.00 83 1012.1
20260510075316 72 360 3.5 10.4 0.00 0.01 0.00 83 1012.2
20260510075217 72 360 4.3 10.4 0.00 0.01 0.00 83 1012.2
20260510075118 72 360 3.5 10.4 0.00 0.01 0.00 83 1012.1
20260510075018 72 360 4.3 10.4 0.00 0.01 0.00 82 1012.1
20260510074919 72 360 4.3 10.4 0.00 0.01 0.00 83 1012.2
20260510074820 72 360 4.3 10.4 0.00 0.01 0.00 83 1012.3
20260510074721 72 360 5.2 10.4 0.00 0.01 0.00 83 1012.2
20260510074625 72 360 5.2 10.4 0.00 0.01 0.00 83 1012.1
20260510074525 72 360 4.3 10.4 0.00 0.01 0.00 82 1012.1
20260510074446 72 360 5.2 10.4 0.00 0.01 0.00 82 1012.1
20260510074324 72 360 5.2 10.4 0.00 0.01 0.00 82 1012.1
20260510074225 72 360 4.3 10.4 0.00 0.01 0.00 82 1012.1
20260510074127 72 360 4.3 10.4 0.00 0.01 0.00 82 1012.1
20260510074047 72 360 5.2 10.4 0.00 0.01 0.00 82 1012.1
20260510073931 72 360 5.2 10.4 0.00 0.01 0.00 82 1012.1
20260510073831 72 360 5.2 10.4 0.00 0.01 0.00 82 1012.1
20260510073732 72 360 5.2 10.4 0.00 0.01 0.00 82 1012.1
20260510073632 72 360 5.2 9.6 0.00 0.01 0.00 82 1012.1
20260510073532 72 360 5.2 11.3 0.00 0.01 0.00 82 1012.1
20260510073453 72 360 5.2 11.3 0.00 0.01 0.00 82 1012.1
20260510073332 72 360 5.2 13.0 0.00 0.01 0.00 82 1012.1
20260510073232 72 360 6.1 13.0 0.00 0.01 0.00 82 1012.2
20260510073117 72 360 6.1 13.0 0.00 0.01 0.00 82 1012.2
20260510073037 72 360 7.0 13.0 0.00 0.01 0.00 82 1012.3
20260510072937 72 360 7.8 13.0 0.00 0.01 0.00 82 1012.2
20260510072818 72 360 7.0 13.0 0.00 0.01 0.00 82 1012.2
20260510072737 72 360 7.8 13.0 0.00 0.01 0.00 82 1012.2
20260510072617 72 360 7.8 13.0 0.00 0.01 0.00 82 1012.3
20260510072538 72 360 7.0 11.3 0.00 0.01 0.00 82 1012.3
20260510072418 72 360 7.0 10.4 0.00 0.01 0.00 82 1012.2
20260510072323 72 360 7.0 10.4 0.00 0.01 0.00 82 1012.3
20260510072225 72 360 7.0 10.4 0.00 0.01 0.00 81 1012.3
20260510072125 72 360 6.1 10.4 0.00 0.01 0.00 81 1012.3
20260510072047 72 360 6.1 10.4 0.00 0.01 0.00 81 1012.4
20260510071946 72 360 5.2 10.4 0.00 0.01 0.00 81 1012.4
20260510071826 72 360 5.2 10.4 0.00 0.01 0.00 81 1012.4
20260510071726 72 360 5.2 10.4 0.00 0.01 0.00 81 1012.4
20260510071627 72 360 5.2 10.4 0.00 0.01 0.00 81 1012.3
20260510071552 72 360 6.1 10.4 0.00 0.01 0.00 81 1012.4
20260510071451 73 360 6.1 10.4 0.00 0.01 0.00 81 1012.4
20260510071330 73 360 6.1 10.4 0.00 0.01 0.00 81 1012.3
20260510071231 73 360 7.0 10.4 0.00 0.01 0.00 81 1012.4
20260510071134 73 360 7.0 10.4 0.00 0.01 0.00 81 1012.3
20260510071034 73 360 7.0 10.4 0.00 0.01 0.00 81 1012.4
20260510070934 73 360 7.0 10.4 0.00 0.01 0.00 81 1012.3
20260510070819 73 360 6.1 9.6 0.00 0.01 0.00 81 1012.3
20260510070720 73 360 5.2 9.6 0.00 0.01 0.00 81 1012.3
20260510070621 73 360 5.2 8.7 0.00 0.01 0.00 80 1012.3
20260510070521 73 360 5.2 7.8 0.00 0.01 0.00 80 1012.3
20260510070442 73 360 4.3 7.8 0.00 0.01 0.00 80 1012.3
20260510070316 73 360 5.2 7.8 0.00 0.01 0.00 80 1012.2
20260510070238 73 360 5.2 7.8 0.00 0.01 0.00 80 1012.3
20260510070121 73 360 5.2 7.8 0.00 0.01 0.00 80 1012.3
20260510070023 73 360 5.2 7.8 0.00 0.01 0.00 80 1012.3
20260510065942 73 360 4.3 10.4 0.00 0.01 0.00 80 1012.2
20260510065824 73 360 4.3 10.4 0.00 0.01 0.00 80 1012.2
20260510065723 73 360 4.3 10.4 0.00 0.01 0.00 80 1012.2
20260510065623 73 360 4.3 10.4 0.00 0.01 0.00 80 1012.1
20260510065545 73 360 4.3 10.4 0.00 0.01 0.00 80 1012.1
20260510065429 73 360 4.3 10.4 0.00 0.01 0.00 80 1012.1
20260510065331 73 360 4.3 10.4 0.00 0.01 0.00 80 1012.2
20260510065230 73 360 4.3 12.2 0.00 0.01 0.00 80 1012.1
20260510065131 73 360 5.2 12.2 0.00 0.01 0.00 80 1012.2
20260510065032 73 360 5.2 12.2 0.00 0.01 0.00 80 1012.1
20260510064933 73 360 5.2 12.2 0.00 0.01 0.00 80 1012.1
20260510064854 73 360 6.1 12.2 0.00 0.01 0.00 80 1012.1
20260510064718 73 360 6.1 12.2 0.00 0.01 0.00 80 1012.0
20260510064617 73 360 6.1 12.2 0.00 0.01 0.00 80 1012.1
20260510064538 73 360 6.1 12.2 0.00 0.01 0.00 80 1012.1
20260510064416 73 360 6.1 9.6 0.00 0.01 0.00 80 1012.0
20260510064318 73 360 6.1 8.7 0.00 0.01 0.00 80 1012.1
20260510064218 73 360 6.1 8.7 0.00 0.01 0.00 80 1012.1
20260510064118 73 360 6.1 8.7 0.00 0.01 0.00 80 1012.1
20260510064023 73 360 6.1 8.7 0.00 0.01 0.00 79 1012.1
20260510063923 73 360 6.1 8.7 0.00 0.01 0.00 79 1012.1
20260510063845 73 360 5.2 8.7 0.00 0.01 0.00 79 1012.1
20260510063724 73 360 5.2 8.7 0.00 0.01 0.00 79 1012.1
20260510063625 73 360 5.2 8.7 0.00 0.01 0.00 79 1012.1
20260510063526 73 360 5.2 8.7 0.00 0.01 0.00 79 1012.1
20260510063427 73 360 5.2 8.7 0.00 0.01 0.00 79 1012.0
20260510063331 73 360 5.2 8.7 0.00 0.01 0.00 79 1012.1
20260510063232 73 360 5.2 8.7 0.00 0.01 0.00 79 1012.1
20260510063133 73 360 5.2 8.7 0.00 0.01 0.00 79 1012.1
20260510063034 73 360 5.2 8.7 0.00 0.01 0.00 79 1012.1
20260510062934 73 360 5.2 8.7 0.00 0.01 0.00 79 1012.1
20260510062856 73 360 5.2 8.7 0.00 0.01 0.00 79 1012.1
20260510062716 73 360 5.2 8.7 0.00 0.01 0.00 79 1012.1
20260510062620 73 360 5.2 8.7 0.00 0.01 0.00 79 1012.2
20260510062541 73 360 5.2 8.7 0.00 0.01 0.00 79 1012.2
20260510062419 73 360 5.2 8.7 0.00 0.01 0.00 79 1012.2
20260510062340 73 360 5.2 8.7 0.00 0.01 0.00 79 1012.1
20260510062219 73 360 5.2 8.7 0.00 0.01 0.00 79 1012.1
20260510062120 73 360 5.2 8.7 0.00 0.01 0.00 79 1012.1
20260510062021 73 360 4.3 8.7 0.00 0.01 0.00 79 1012.1
20260510061925 73 360 4.3 8.7 0.00 0.01 0.00 79 1012.1
20260510061826 73 360 4.3 8.7 0.00 0.01 0.00 79 1012.1
20260510061727 73 360 4.3 8.7 0.00 0.01 0.00 79 1012.1
20260510061628 73 360 4.3 8.7 0.00 0.01 0.00 79 1012.1
20260510061528 73 360 4.3 8.7 0.00 0.01 0.00 79 1012.1
20260510061428 73 360 4.3 7.8 0.00 0.01 0.00 79 1012.1
20260510061329 73 360 4.3 7.8 0.00 0.01 0.00 79 1012.0
20260510061253 73 360 4.3 7.8 0.00 0.01 0.00 79 1012.0
20260510061152 73 360 4.3 7.8 0.00 0.01 0.00 79 1012.1
20260510061032 73 360 5.2 7.8 0.00 0.01 0.00 79 1012.0
20260510060932 73 360 5.2 7.8 0.00 0.01 0.00 79 1012.0
20260510060833 73 360 4.3 7.8 0.00 0.01 0.00 79 1012.1
20260510060733 73 360 4.3 7.8 0.00 0.01 0.00 79 1012.1
20260510060634 73 360 3.5 7.8 0.00 0.01 0.00 79 1012.0
20260510060519 74 360 3.5 7.0 0.00 0.01 0.00 79 1012.0
20260510060420 74 360 3.5 7.0 0.00 0.01 0.00 79 1012.0
20260510060320 74 360 4.3 7.0 0.00 0.01 0.00 79 1012.0
20260510060220 74 360 4.3 7.0 0.00 0.01 0.00 79 1012.0
20260510060120 74 360 4.3 8.7 0.00 0.01 0.00 79 1012.1
20260510060020 74 360 4.3 8.7 0.00 0.01 0.00 79 1012.0
20260510055939 74 360 4.3 8.7 0.00 0.01 0.00 79 1012.0
20260510055824 74 360 4.3 8.7 0.00 0.01 0.00 79 1012.0
20260510055723 74 360 4.3 8.7 0.00 0.01 0.01 78 1012.1
20260510055644 74 360 4.3 8.7 0.00 0.01 0.01 78 1012.1
20260510055524 74 360 4.3 8.7 0.00 0.01 0.01 78 1012.0
20260510055425 74 360 5.2 8.7 0.00 0.01 0.01 78 1012.0
20260510055346 74 360 5.2 8.7 0.00 0.01 0.01 78 1012.0
20260510055225 74 360 5.2 8.7 0.00 0.01 0.01 78 1012.0
20260510055125 74 360 4.3 7.8 0.00 0.01 0.01 78 1011.9
20260510055030 74 360 4.3 7.8 0.00 0.01 0.01 78 1011.9
20260510054951 74 360 4.3 7.0 0.00 0.01 0.01 78 1012.0
20260510054831 74 360 4.3 7.0 0.00 0.01 0.01 78 1011.9
20260510054732 74 360 3.5 7.0 0.00 0.01 0.01 79 1011.9
20260510054631 74 360 3.5 7.0 0.00 0.01 0.01 79 1011.9
20260510054533 74 360 3.5 5.2 0.00 0.01 0.01 79 1011.9
20260510054454 74 360 3.5 5.2 0.00 0.01 0.01 79 1011.9
20260510054318 74 360 3.5 5.2 0.00 0.01 0.01 79 1012.0
20260510054218 74 360 3.5 5.2 0.00 0.01 0.01 79 1012.0
20260510054119 74 360 3.5 5.2 0.00 0.01 0.01 79 1012.0
20260510054020 74 360 3.5 5.2 0.00 0.01 0.01 79 1012.0
20260510053919 74 360 3.5 5.2 0.00 0.01 0.01 79 1012.0
20260510053840 74 360 3.5 5.2 0.00 0.01 0.01 79 1012.1
20260510053720 74 360 3.5 7.0 0.00 0.01 0.01 79 1012.1
20260510053623 74 360 3.5 7.0 0.00 0.01 0.01 79 1012.1
20260510053523 74 360 3.5 7.0 0.00 0.01 0.01 79 1012.0
20260510053423 74 360 3.5 7.0 0.00 0.01 0.01 79 1012.1
20260510053343 74 360 3.5 7.0 0.00 0.01 0.01 79 1012.1
20260510053223 74 360 3.5 7.0 0.00 0.01 0.01 79 1012.1
20260510053124 74 360 3.5 7.0 0.00 0.01 0.01 80 1012.1
20260510053025 74 360 3.5 7.0 0.00 0.01 0.01 80 1012.1
20260510052925 74 360 3.5 7.0 0.00 0.01 0.01 80 1012.1
20260510052830 74 360 3.5 5.2 0.00 0.01 0.01 80 1012.1
20260510052732 74 360 3.5 5.2 0.00 0.01 0.01 80 1012.1
20260510052632 74 360 2.6 5.2 0.00 0.01 0.01 80 1012.1
20260510052532 74 360 2.6 5.2 0.00 0.01 0.01 80 1012.1
20260510052432 74 360 2.6 5.2 0.00 0.01 0.01 80 1012.1
20260510052333 74 360 2.6 5.2 0.00 0.01 0.01 80 1012.1
20260510052216 74 360 2.6 5.2 0.00 0.01 0.01 80 1012.2
20260510052136 74 360 2.6 5.2 0.00 0.01 0.01 80 1012.2
20260510052037 74 360 2.6 5.2 0.00 0.01 0.01 80 1012.2
20260510051935 74 360 2.6 4.3 0.00 0.01 0.01 80 1012.2
20260510051816 74 360 2.6 4.3 0.00 0.01 0.01 80 1012.3
20260510051717 74 360 2.6 3.5 0.00 0.01 0.01 80 1012.2
20260510051617 74 360 2.6 3.5 0.00 0.01 0.01 80 1012.2
20260510051522 74 360 1.7 4.3 0.00 0.01 0.01 80 1012.1
20260510051424 74 360 1.7 4.3 0.00 0.01 0.01 80 1012.1
20260510051324 74 360 1.7 4.3 0.00 0.01 0.01 80 1012.0
20260510051225 74 360 2.6 4.3 0.00 0.01 0.01 80 1012.0
20260510051145 74 360 2.6 4.3 0.00 0.01 0.01 80 1012.0
20260510051023 74 360 2.6 4.3 0.00 0.01 0.01 80 1012.0
20260510050924 75 360 2.6 4.3 0.00 0.01 0.01 80 1012.0
20260510050845 75 360 2.6 4.3 0.00 0.01 0.01 80 1012.0
20260510050728 75 360 2.6 4.3 0.00 0.01 0.01 80 1012.0
20260510050629 75 360 2.6 4.3 0.00 0.01 0.01 80 1012.1
20260510050529 75 360 2.6 4.3 0.00 0.01 0.01 80 1012.1
20260510050429 75 360 2.6 4.3 0.00 0.01 0.01 80 1012.0
20260510050330 75 360 2.6 4.3 0.00 0.01 0.01 80 1012.1
20260510050231 75 360 3.5 4.3 0.00 0.01 0.01 80 1012.1
20260510050131 75 360 2.6 4.3 0.00 0.01 0.01 80 1012.1
20260510050016 75 360 3.5 4.3 0.00 0.01 0.01 80 1012.1
20260510045917 75 360 3.5 4.3 0.00 0.01 0.01 80 1012.1
20260510045839 75 360 3.5 4.3 0.00 0.01 0.01 81 1012.1
20260510045718 75 360 2.6 4.3 0.00 0.01 0.01 80 1012.0
20260510045617 75 360 2.6 4.3 0.00 0.01 0.01 80 1012.1
20260510045538 75 360 2.6 4.3 0.00 0.01 0.01 79 1012.1
20260510045418 75 360 2.6 4.3 0.00 0.01 0.01 79 1012.0
20260510045322 75 360 1.7 4.3 0.00 0.01 0.01 79 1012.0
20260510045223 75 360 2.6 4.3 0.00 0.01 0.01 79 1012.1
20260510045144 75 360 2.6 4.3 0.00 0.01 0.01 79 1012.0
20260510045023 75 360 2.6 4.3 0.00 0.01 0.01 79 1012.0
20260510044943 75 360 2.6 4.3 0.00 0.01 0.01 79 1012.0
20260510044823 75 360 2.6 4.3 0.00 0.01 0.01 79 1011.9
20260510044724 75 360 2.6 4.3 0.00 0.01 0.01 79 1012.0
20260510044628 75 360 2.6 4.3 0.00 0.01 0.01 79 1012.0
20260510044529 75 360 2.6 4.3 0.00 0.01 0.01 79 1012.0
20260510044429 76 360 2.6 5.2 0.00 0.01 0.01 79 1012.0
20260510044351 76 360 2.6 5.2 0.00 0.01 0.01 79 1012.0
20260510044231 76 360 2.6 5.2 0.00 0.01 0.01 79 1012.0
20260510044132 76 360 2.6 5.2 0.00 0.01 0.01 79 1012.0
20260510044032 76 360 2.6 5.2 0.00 0.01 0.01 78 1012.0
20260510043917 76 360 2.6 5.2 0.00 0.01 0.01 78 1012.0
20260510043818 76 360 2.6 5.2 0.00 0.01 0.01 78 1012.0
20260510043738 76 360 2.6 5.2 0.00 0.01 0.01 78 1011.9
20260510043618 76 360 3.5 5.2 0.00 0.01 0.01 78 1012.0
20260510043519 76 360 3.5 5.2 0.00 0.01 0.01 78 1012.0
20260510043440 76 360 2.6 5.2 0.00 0.01 0.01 78 1012.0
20260510043319 76 360 2.6 3.5 0.00 0.01 0.01 78 1011.9
20260510043224 76 360 1.7 3.5 0.00 0.01 0.01 78 1012.0
20260510043124 76 360 1.7 3.5 0.00 0.01 0.01 78 1011.9
20260510043025 76 360 1.7 3.5 0.00 0.01 0.01 78 1011.9
20260510042945 76 360 1.7 3.5 0.00 0.01 0.01 78 1011.9
20260510042827 76 360 1.7 3.5 0.00 0.01 0.01 78 1011.9
20260510042725 76 360 1.7 3.5 0.00 0.01 0.01 77 1011.9
20260510042626 76 360 1.7 3.5 0.00 0.01 0.01 77 1011.8
20260510042548 76 360 2.6 7.0 0.00 0.01 0.01 77 1011.9
20260510042452 76 360 2.6 7.0 0.00 0.01 0.01 77 1011.9
20260510042331 76 360 2.6 7.0 0.00 0.01 0.01 77 1011.8
20260510042231 76 360 2.6 7.0 0.00 0.01 0.01 77 1011.9
20260510042132 76 360 2.6 7.0 0.00 0.01 0.01 77 1011.9
20260510042033 76 360 2.6 7.0 0.00 0.01 0.01 77 1011.9
20260510041933 76 360 2.6 7.8 0.00 0.01 0.01 77 1011.8
20260510041817 77 360 2.6 7.8 0.00 0.01 0.01 77 1011.8
20260510041718 77 360 3.5 7.8 0.00 0.01 0.01 77 1011.9
20260510041618 77 360 3.5 7.8 0.00 0.01 0.01 77 1011.9
20260510041519 77 360 3.5 7.8 0.00 0.01 0.01 77 1011.9
20260510041420 77 360 4.3 7.8 0.00 0.01 0.01 77 1011.9
20260510041321 77 360 4.3 7.8 0.00 0.01 0.01 77 1011.9
20260510041221 77 360 3.5 7.8 0.00 0.01 0.01 77 1011.9
20260510041142 77 360 3.5 7.0 0.00 0.01 0.01 78 1011.9
20260510041025 77 360 2.6 5.2 0.00 0.01 0.01 78 1011.9
20260510040926 77 360 2.6 5.2 0.00 0.01 0.01 78 1011.9
20260510040846 77 360 1.7 4.3 0.00 0.01 0.01 78 1011.8
20260510040745 77 360 1.7 4.3 0.00 0.01 0.01 78 1011.9
20260510040625 77 360 1.7 4.3 0.00 0.01 0.01 78 1011.9
20260510040525 77 360 1.7 3.5 0.00 0.01 0.01 78 1011.9
20260510040446 77 360 1.7 3.5 0.00 0.01 0.01 78 1011.9
20260510040324 77 360 1.7 3.5 0.00 0.01 0.01 78 1011.9
20260510040223 77 360 1.7 4.3 0.00 0.01 0.01 78 1011.8
20260510040126 77 360 1.7 4.3 0.00 0.01 0.01 78 1011.7
20260510040025 77 360 1.7 4.3 0.00 0.01 0.01 78 1011.8
20260510035947 77 360 2.6 4.3 0.00 0.01 0.01 78 1011.8
20260510035825 77 360 2.6 4.3 0.00 0.01 0.01 77 1011.7
20260510035745 77 360 2.6 4.3 0.00 0.01 0.01 77 1011.8
20260510035644 77 360 2.6 4.3 0.00 0.01 0.01 77 1011.8
20260510035523 77 360 2.6 4.3 0.00 0.01 0.01 77 1011.7
20260510035424 77 360 2.6 4.3 0.00 0.01 0.01 78 1011.7
20260510035324 77 360 2.6 4.3 0.00 0.01 0.01 78 1011.7
20260510035229 77 360 2.6 4.3 0.00 0.01 0.01 78 1011.7
20260510035129 77 360 2.6 4.3 0.00 0.01 0.01 77 1011.7
20260510035049 77 360 2.6 4.3 0.00 0.01 0.01 77 1011.7
20260510034948 77 360 2.6 4.3 0.00 0.01 0.01 77 1011.7
20260510034827 77 360 2.6 4.3 0.00 0.01 0.01 77 1011.7
20260510034727 77 360 2.6 4.3 0.00 0.01 0.01 77 1011.7
20260510034645 77 360 2.6 4.3 0.00 0.01 0.01 77 1011.7
20260510034525 78 360 2.6 4.3 0.00 0.01 0.01 77 1011.7
20260510034430 78 360 2.6 4.3 0.00 0.01 0.01 77 1011.7
20260510034330 78 360 2.6 4.3 0.00 0.01 0.01 77 1011.7
20260510034230 78 360 2.6 4.3 0.00 0.01 0.01 77 1011.7
20260510034131 78 360 2.6 5.2 0.00 0.01 0.01 77 1011.7
20260510034051 78 360 2.6 5.2 0.00 0.01 0.01 77 1011.7
20260510033931 78 360 2.6 5.2 0.00 0.01 0.01 77 1011.7
20260510033816 78 360 2.6 5.2 0.00 0.01 0.01 77 1011.8
20260510033716 78 360 2.6 5.2 0.00 0.01 0.01 77 1011.7
20260510033617 78 360 2.6 5.2 0.00 0.01 0.01 77 1011.7
20260510033538 78 360 2.6 5.2 0.00 0.01 0.01 77 1011.7
20260510033437 78 360 1.7 5.2 0.00 0.01 0.01 77 1011.7
20260510033357 78 360 2.6 5.2 0.00 0.01 0.01 77 1011.7
20260510033216 78 360 2.6 5.2 0.00 0.01 0.01 77 1011.7
20260510033135 78 360 2.6 7.0 0.00 0.01 0.01 77 1011.7
20260510033020 78 360 2.6 7.0 0.00 0.01 0.01 77 1011.7
20260510032920 78 360 2.6 7.0 0.00 0.01 0.01 77 1011.7
20260510032821 78 360 3.5 7.0 0.00 0.01 0.01 77 1011.7
20260510032741 78 360 3.5 7.0 0.00 0.01 0.01 77 1011.6
20260510032620 78 360 3.5 7.0 0.00 0.01 0.01 77 1011.6
20260510032520 78 360 3.5 7.0 0.00 0.01 0.01 77 1011.5
20260510032421 78 360 3.5 7.0 0.00 0.01 0.01 77 1011.6
20260510032325 78 360 3.5 7.0 0.00 0.01 0.01 77 1011.6
20260510032227 78 360 3.5 5.2 0.00 0.01 0.01 77 1011.5
20260510032127 78 360 3.5 5.2 0.00 0.01 0.01 77 1011.6
20260510032028 78 360 3.5 5.2 0.00 0.01 0.01 77 1011.6
20260510031947 78 360 2.6 5.2 0.00 0.01 0.01 77 1011.5
20260510031827 78 360 2.6 4.3 0.00 0.01 0.01 77 1011.4
20260510031727 78 360 2.6 4.3 0.00 0.01 0.01 77 1011.5
20260510031629 78 360 2.6 4.3 0.00 0.01 0.01 77 1011.5
20260510031530 78 360 2.6 4.3 0.00 0.01 0.01 77 1011.5
20260510031429 78 360 2.6 4.3 0.00 0.01 0.01 77 1011.4
20260510031330 78 360 2.6 3.5 0.00 0.01 0.01 77 1011.4
20260510031250 78 360 2.6 3.5 0.00 0.01 0.01 77 1011.4
20260510031130 78 360 2.6 3.5 0.00 0.01 0.01 77 1011.4
20260510031029 78 360 2.6 3.5 0.00 0.01 0.01 77 1011.3
20260510030935 78 360 2.6 3.5 0.00 0.01 0.01 77 1011.4
20260510030817 79 360 2.6 3.5 0.00 0.01 0.01 77 1011.4
20260510030738 79 360 2.6 3.5 0.00 0.01 0.01 77 1011.4
20260510030637 79 360 2.6 3.5 0.00 0.01 0.01 77 1011.4
20260510030517 79 360 1.7 3.5 0.00 0.01 0.01 77 1011.3
20260510030418 79 360 1.7 5.2 0.00 0.01 0.01 77 1011.3
20260510030338 79 360 1.7 5.2 0.00 0.01 0.01 77 1011.3
20260510030217 79 360 1.7 5.2 0.00 0.01 0.01 77 1011.4
20260510030121 79 360 1.7 5.2 0.00 0.01 0.01 77 1011.3
20260510030021 79 360 2.6 5.2 0.00 0.01 0.01 77 1011.3
20260510025920 79 360 2.6 5.2 0.00 0.01 0.01 77 1011.4
20260510025822 79 360 2.6 5.2 0.00 0.01 0.01 77 1011.4
20260510025720 79 360 2.6 5.2 0.00 0.01 0.01 77 1011.3
20260510025620 79 360 2.6 5.2 0.00 0.01 0.01 77 1011.3
20260510025520 79 360 3.5 5.2 0.00 0.01 0.01 77 1011.3
20260510025422 79 360 3.5 5.2 0.00 0.01 0.01 77 1011.3
20260510025326 79 360 3.5 5.2 0.00 0.01 0.01 77 1011.2
20260510025227 79 360 3.5 5.2 0.00 0.01 0.01 77 1011.2
20260510025129 79 360 3.5 5.2 0.00 0.01 0.01 77 1011.2
20260510025030 79 360 3.5 5.2 0.00 0.01 0.01 77 1011.2
20260510024930 79 360 3.5 5.2 0.00 0.01 0.01 77 1011.2
20260510024830 79 360 3.5 5.2 0.00 0.01 0.01 77 1011.1
20260510024735 79 360 3.5 5.2 0.00 0.01 0.01 77 1011.1
20260510024656 79 360 3.5 7.0 0.00 0.01 0.01 77 1011.1
20260510024437 79 360 2.6 8.7 0.00 0.01 0.01 77 1011.0
20260510024316 79 360 2.6 8.7 0.00 0.01 0.01 77 1011.1
20260510024217 79 360 3.5 8.7 0.00 0.01 0.01 77 1011.0
20260510024137 79 360 3.5 8.7 0.00 0.01 0.01 77 1011.0
20260510024036 79 360 4.3 8.7 0.00 0.01 0.01 77 1011.0
20260510023920 79 360 5.2 8.7 0.00 0.01 0.01 77 1010.9
20260510023821 80 360 4.3 8.7 0.00 0.01 0.01 77 1011.0
20260510023722 80 360 5.2 8.7 0.00 0.01 0.01 77 1011.0
20260510023622 80 360 5.2 9.6 0.00 0.01 0.01 77 1011.0
20260510023523 80 360 4.3 9.6 0.00 0.01 0.01 76 1010.9
20260510023423 80 360 5.2 9.6 0.00 0.01 0.01 76 1010.9
20260510023323 80 360 5.2 9.6 0.00 0.01 0.01 76 1011.0
20260510023228 80 360 5.2 9.6 0.00 0.01 0.01 76 1011.0
20260510023127 80 360 6.1 9.6 0.00 0.01 0.01 76 1010.9
20260510023027 80 360 6.1 9.6 0.00 0.01 0.01 76 1010.8
20260510022925 80 360 6.1 9.6 0.00 0.01 0.01 76 1010.8
20260510022825 80 360 6.1 9.6 0.00 0.01 0.01 76 1010.8
20260510022723 80 360 5.2 9.6 0.00 0.01 0.01 76 1010.8
20260510022624 80 360 5.2 7.8 0.00 0.01 0.01 76 1010.8
20260510022521 80 360 5.2 7.8 0.00 0.01 0.01 76 1010.8
20260510022423 80 360 5.2 7.8 0.00 0.01 0.01 76 1010.7
20260510022327 80 360 5.2 7.8 0.00 0.01 0.01 76 1010.7
20260510022227 80 360 5.2 7.8 0.00 0.01 0.01 76 1010.8
20260510022128 80 360 4.3 8.7 0.00 0.01 0.01 76 1010.8
20260510022049 80 360 4.3 10.4 0.00 0.01 0.01 76 1010.8
20260510021949 80 360 4.3 10.4 0.00 0.01 0.01 75 1010.7
20260510021828 80 360 4.3 10.4 0.00 0.01 0.01 75 1010.8
20260510021727 80 360 5.2 10.4 0.00 0.01 0.01 75 1010.7
20260510021649 80 360 5.2 10.4 0.00 0.01 0.01 75 1010.7
20260510021551 80 360 6.1 10.4 0.00 0.01 0.01 75 1010.7
20260510021431 80 360 6.1 11.3 0.00 0.01 0.01 75 1010.7
20260510021352 80 360 6.1 11.3 0.00 0.01 0.01 75 1010.7
20260510021252 80 360 6.1 11.3 0.00 0.01 0.01 75 1010.8
20260510021152 80 360 7.0 11.3 0.00 0.01 0.01 75 1010.7
20260510021031 80 360 6.1 11.3 0.00 0.01 0.01 75 1010.7
20260510020932 80 360 7.0 11.3 0.00 0.01 0.01 75 1010.7
20260510020831 80 360 7.8 11.3 0.00 0.01 0.01 75 1010.6
20260510020731 80 360 7.0 11.3 0.00 0.01 0.01 75 1010.7
20260510020634 80 360 7.0 11.3 0.00 0.01 0.01 75 1010.7
20260510020517 80 360 7.0 11.3 0.00 0.01 0.01 75 1010.7
20260510020437 80 360 6.1 9.6 0.00 0.01 0.01 74 1010.6
20260510020316 80 360 6.1 9.6 0.00 0.01 0.01 74 1010.6
20260510020217 81 360 6.1 9.6 0.00 0.01 0.01 74 1010.6
20260510020118 80 360 6.1 9.6 0.00 0.01 0.01 74 1010.6
20260510020018 80 360 6.1 9.6 0.00 0.01 0.01 74 1010.5
20260510015943 80 360 6.1 9.6 0.00 0.01 0.01 74 1010.6
20260510015823 80 360 6.1 9.6 0.00 0.01 0.01 74 1010.6
20260510015722 80 360 6.1 9.6 0.00 0.01 0.01 74 1010.5
20260510015622 80 360 5.2 9.6 0.00 0.01 0.01 74 1010.5
20260510015522 81 360 5.2 8.7 0.00 0.01 0.01 74 1010.5
20260510015423 80 360 5.2 8.7 0.00 0.01 0.01 74 1010.5
20260510015323 80 360 5.2 7.8 0.00 0.01 0.01 74 1010.5
20260510015228 80 360 5.2 7.8 0.00 0.01 0.01 74 1010.5
20260510015149 80 360 5.2 7.8 0.00 0.01 0.01 74 1010.4
20260510015048 80 360 5.2 7.8 0.00 0.01 0.01 74 1010.5
20260510014948 80 360 4.3 7.8 0.00 0.01 0.01 74 1010.5
20260510014827 81 360 4.3 7.8 0.00 0.01 0.01 74 1010.5
20260510014727 81 360 4.3 7.0 0.00 0.01 0.01 74 1010.4
20260510014627 81 360 3.5 5.2 0.00 0.01 0.01 74 1010.4
20260510014528 81 360 3.5 5.2 0.00 0.01 0.01 74 1010.4
20260510014428 81 360 3.5 4.3 0.00 0.01 0.01 73 1010.4
20260510014352 81 360 3.5 4.3 0.00 0.01 0.01 73 1010.3
20260510014232 81 360 3.5 4.3 0.00 0.01 0.01 73 1010.4
20260510014133 81 360 3.5 4.3 0.00 0.01 0.01 73 1010.3
20260510014054 81 360 2.6 4.3 0.00 0.01 0.01 73 1010.4
20260510013933 81 360 2.6 4.3 0.00 0.01 0.01 73 1010.4
20260510013834 81 360 2.6 3.5 0.00 0.01 0.01 73 1010.4
20260510013735 81 360 2.6 3.5 0.00 0.01 0.01 72 1010.3
20260510013620 81 360 2.6 3.5 0.00 0.01 0.01 72 1010.4
20260510013521 81 360 2.6 3.5 0.00 0.01 0.01 72 1010.3
20260510013422 81 360 2.6 3.5 0.00 0.01 0.01 72 1010.3
20260510013324 81 360 2.6 3.5 0.00 0.01 0.01 72 1010.2
20260510013225 81 360 2.6 3.5 0.00 0.01 0.01 72 1010.2
20260510013125 81 360 2.6 3.5 0.00 0.01 0.01 73 1010.3
20260510013029 81 360 2.6 3.5 0.00 0.01 0.01 72 1010.3
20260510012930 81 360 2.6 3.5 0.00 0.01 0.01 72 1010.3
20260510012850 81 360 2.6 4.3 0.00 0.01 0.01 72 1010.2
20260510012731 81 360 2.6 4.3 0.00 0.01 0.01 72 1010.2
20260510012630 81 360 2.6 4.3 0.00 0.01 0.01 71 1010.3
20260510012531 82 360 2.6 4.3 0.00 0.01 0.01 71 1010.3
20260510012432 82 360 2.6 4.3 0.00 0.01 0.01 71 1010.3
20260510012336 82 360 2.6 4.3 0.00 0.01 0.01 71 1010.2
20260510012216 82 360 2.6 4.3 0.00 0.01 0.01 71 1010.2
20260510012117 82 360 2.6 4.3 0.00 0.01 0.01 71 1010.2
20260510012017 82 360 2.6 4.3 0.00 0.01 0.01 71 1010.2
20260510011919 82 360 2.6 4.3 0.00 0.01 0.01 71 1010.2
20260510011820 82 360 2.6 4.3 0.00 0.01 0.01 71 1010.2
20260510011727 82 360 2.6 7.0 0.00 0.01 0.01 70 1010.2
20260510011626 82 360 2.6 7.0 0.00 0.01 0.01 70 1010.3
20260510011525 82 360 3.5 7.0 0.00 0.01 0.01 70 1010.2
20260510011426 82 360 3.5 7.0 0.00 0.01 0.01 70 1010.2
20260510011327 82 360 3.5 7.0 0.00 0.01 0.01 70 1010.1
20260510011226 82 360 3.5 7.0 0.00 0.01 0.01 70 1010.2
20260510011127 82 360 3.5 7.0 0.00 0.01 0.01 70 1010.2
20260510011031 82 360 3.5 7.0 0.00 0.01 0.01 69 1010.2
20260510010932 82 360 3.5 7.8 0.00 0.01 0.01 69 1010.2
20260510010833 82 360 3.5 7.8 0.00 0.01 0.01 69 1010.2
20260510010733 82 360 3.5 7.8 0.00 0.01 0.01 69 1010.2
20260510010653 82 360 4.3 7.8 0.00 0.01 0.01 69 1010.1
20260510010533 83 360 4.3 7.8 0.00 0.01 0.01 69 1010.2
20260510010419 83 360 4.3 7.8 0.00 0.01 0.01 69 1010.1
20260510010319 83 360 4.3 7.8 0.00 0.01 0.01 69 1010.1
20260510010220 83 360 4.3 7.8 0.00 0.01 0.01 69 1010.1
20260510010119 83 360 4.3 8.7 0.00 0.01 0.01 69 1010.1
20260510010020 83 360 4.3 8.7 0.00 0.01 0.01 69 1010.0
20260510005920 83 360 4.3 8.7 0.00 0.01 0.01 69 1010.0
20260510005822 83 360 4.3 8.7 0.00 0.01 0.01 69 1010.0
20260510005746 83 360 4.3 8.7 0.00 0.01 0.01 69 1010.1
20260510005627 83 360 4.3 8.7 0.00 0.01 0.01 68 1010.1
20260510005526 83 360 5.2 8.7 0.00 0.01 0.01 68 1010.1
20260510005427 83 360 5.2 9.6 0.00 0.01 0.01 68 1010.0
20260510005326 83 360 4.3 9.6 0.00 0.01 0.01 68 1010.0
20260510005227 83 360 4.3 9.6 0.00 0.01 0.01 68 1010.0
20260510005127 83 360 4.3 9.6 0.00 0.01 0.01 68 1010.0
20260510005032 83 360 4.3 9.6 0.00 0.01 0.01 68 1010.0
20260510004932 83 360 4.3 9.6 0.00 0.01 0.01 68 1010.0
20260510004832 83 360 4.3 9.6 0.00 0.01 0.01 68 1010.0
20260510004733 83 360 4.3 9.6 0.00 0.01 0.01 68 1010.0
20260510004634 83 360 5.2 9.6 0.00 0.01 0.01 68 1010.0
20260510004535 83 360 5.2 9.6 0.00 0.01 0.01 67 1009.9
20260510004419 84 360 5.2 9.6 0.00 0.01 0.01 67 1010.0
20260510004320 84 360 5.2 9.6 0.00 0.01 0.01 67 1009.9
20260510004221 84 360 4.3 9.6 0.00 0.01 0.01 67 1009.9
20260510004122 84 360 4.3 9.6 0.00 0.01 0.01 67 1009.9
20260510004024 84 360 3.5 8.7 0.00 0.01 0.01 67 1009.9
20260510003924 84 360 3.5 8.7 0.00 0.01 0.01 67 1009.9
20260510003829 84 360 3.5 8.7 0.00 0.01 0.01 67 1009.9
20260510003729 84 360 4.3 8.7 0.00 0.01 0.01 67 1009.9
20260510003630 84 360 4.3 8.7 0.00 0.01 0.01 66 1009.9
20260510003530 84 360 5.2 8.7 0.00 0.01 0.01 66 1009.9
20260510003431 84 360 6.1 8.7 0.00 0.01 0.01 66 1009.9
20260510003331 84 360 6.1 8.7 0.00 0.01 0.01 66 1009.9
20260510003216 84 360 5.2 8.7 0.00 0.01 0.01 66 1009.9
20260510003116 84 360 5.2 8.7 0.00 0.01 0.01 66 1009.8
20260510003017 84 360 5.2 8.7 0.00 0.01 0.01 66 1009.8
20260510002916 84 360 5.2 8.7 0.00 0.01 0.01 66 1009.9
20260510002817 84 360 5.2 8.7 0.00 0.01 0.01 65 1009.8
20260510002717 84 360 5.2 10.4 0.00 0.01 0.01 65 1009.8
20260510002619 84 360 5.2 10.4 0.00 0.01 0.01 65 1009.7
20260510002523 84 360 6.1 10.4 0.00 0.01 0.01 65 1009.8
20260510002423 85 360 5.2 10.4 0.00 0.01 0.01 65 1009.8
20260510002324 85 360 6.1 10.4 0.00 0.01 0.01 65 1009.8
20260510002244 85 360 6.1 10.4 0.00 0.01 0.01 65 1009.8
20260510002144 85 360 6.1 10.4 0.00 0.01 0.01 65 1009.8
20260510002023 85 360 6.1 10.4 0.00 0.01 0.01 65 1009.7
20260510001924 85 360 6.1 10.4 0.00 0.01 0.01 64 1009.7
20260510001824 85 360 5.2 9.6 0.00 0.01 0.01 64 1009.7
20260510001729 85 360 5.2 9.6 0.00 0.01 0.01 64 1009.7
20260510001629 85 360 4.3 8.7 0.00 0.01 0.01 64 1009.7
20260510001529 85 360 4.3 9.6 0.00 0.01 0.01 64 1009.7
20260510001429 85 360 4.3 9.6 0.00 0.01 0.01 64 1009.7
20260510001330 85 360 4.3 9.6 0.00 0.01 0.01 64 1009.7
20260510001230 85 360 4.3 9.6 0.00 0.01 0.01 64 1009.6
20260510001131 85 360 5.2 9.6 0.00 0.01 0.01 64 1009.7
20260510001036 85 360 6.1 9.6 0.00 0.01 0.01 64 1009.6
20260510000955 85 360 6.1 9.6 0.00 0.01 0.01 64 1009.7
20260510000835 85 360 6.1 9.6 0.00 0.01 0.01 63 1009.7
20260510000735 85 360 5.2 8.7 0.00 0.01 0.01 63 1009.7
20260510000635 85 360 4.3 8.7 0.00 0.01 0.01 63 1009.6
20260510000535 85 360 3.5 8.7 0.00 0.01 0.01 63 1009.6
20260510000435 85 360 2.6 8.7 0.00 0.01 0.01 63 1009.6
20260510000320 85 360 2.6 8.7 0.00 0.01 0.01 63 1009.6
20260510000221 85 360 3.5 8.7 0.00 0.01 0.01 63 1009.6
20260510000142 85 360 4.3 8.7 0.00 0.01 0.01 63 1009.7
20260510000022 85 360 4.3 8.7 0.00 0.01 0.01 63 1009.6
20260509235921 85 360 5.2 8.7 0.00 0.01 0.01 63 1009.6
20260509235824 85 360 6.1 8.7 0.00 0.01 0.01 62 1009.6
20260509235723 85 360 6.1 8.7 0.00 0.01 0.01 62 1009.6
20260509235629 85 360 5.2 8.7 0.00 0.01 0.01 62 1009.6
20260509235549 85 360 5.2 9.6 0.00 0.01 0.01 62 1009.7
20260509235428 85 360 5.2 9.6 0.00 0.01 0.01 61 1009.6
20260509235329 85 360 5.2 9.6 0.00 0.01 0.01 61 1009.6
20260509235229 86 360 5.2 9.6 0.00 0.01 0.01 61 1009.5
20260509235130 86 360 5.2 9.6 0.00 0.01 0.01 61 1009.6
20260509235050 86 360 5.2 9.6 0.00 0.01 0.01 61 1009.5
20260509234934 86 360 5.2 9.6 0.00 0.01 0.01 61 1009.5
20260509234834 86 360 5.2 9.6 0.00 0.01 0.01 61 1009.5
20260509234755 86 360 6.1 9.6 0.00 0.01 0.01 61 1009.5
20260509234653 86 360 5.2 9.6 0.00 0.01 0.01 60 1009.4
20260509234533 86 360 5.2 8.7 0.00 0.01 0.01 59 1009.4
20260509234434 86 360 5.2 8.7 0.00 0.01 0.01 59 1009.4
20260509234334 86 360 4.3 9.6 0.00 0.01 0.01 59 1009.4
20260509234255 86 360 4.3 10.4 0.00 0.01 0.01 59 1009.4
20260509234117 86 360 4.3 10.4 0.00 0.01 0.01 59 1009.4
20260509234038 86 360 4.3 10.4 0.00 0.01 0.01 59 1009.4
20260509233937 86 360 5.2 10.4 0.00 0.01 0.01 59 1009.4
20260509233858 86 360 6.1 10.4 0.00 0.01 0.01 59 1009.4
20260509233757 86 360 6.1 10.4 0.00 0.01 0.01 59 1009.4
20260509233617 86 360 7.0 10.4 0.00 0.01 0.01 59 1009.4
20260509233517 86 360 7.0 10.4 0.00 0.01 0.01 58 1009.3
20260509233417 86 360 7.0 10.4 0.00 0.01 0.01 59 1009.3
20260509233322 86 360 7.0 10.4 0.00 0.01 0.01 59 1009.4
20260509233223 86 360 6.1 10.4 0.00 0.01 0.01 59 1009.4
20260509233123 86 360 6.1 10.4 0.00 0.01 0.01 58 1009.3
20260509233024 86 360 7.0 10.4 0.00 0.01 0.01 58 1009.4
20260509232923 86 360 7.0 10.4 0.00 0.01 0.01 58 1009.3
20260509232825 86 360 7.0 10.4 0.00 0.01 0.01 59 1009.3
20260509232745 86 360 7.0 10.4 0.00 0.01 0.01 58 1009.2
20260509232629 86 360 7.0 10.4 0.00 0.01 0.01 58 1009.2
20260509232529 86 360 7.0 10.4 0.00 0.01 0.01 58 1009.4
20260509232428 86 360 6.1 11.3 0.00 0.01 0.01 59 1009.4
20260509232348 86 360 5.2 11.3 0.00 0.01 0.01 58 1009.3
20260509232227 86 360 5.2 11.3 0.00 0.01 0.01 58 1009.3
20260509232128 86 360 6.1 11.3 0.00 0.01 0.01 57 1009.3
20260509232029 86 360 6.1 11.3 0.00 0.01 0.01 57 1009.3
20260509231928 86 360 6.1 11.3 0.00 0.01 0.01 57 1009.3
20260509231833 86 360 7.0 11.3 0.00 0.01 0.01 57 1009.3
20260509231754 86 360 7.0 11.3 0.00 0.01 0.01 57 1009.2
20260509231634 86 360 6.1 11.3 0.00 0.01 0.01 57 1009.2
20260509231533 87 360 6.1 10.4 0.00 0.01 0.01 56 1009.2
20260509231434 87 360 6.1 10.4 0.00 0.01 0.01 56 1009.3
20260509231335 87 360 6.1 10.4 0.00 0.01 0.01 56 1009.2
20260509231219 87 360 6.1 10.4 0.00 0.01 0.01 55 1009.3
20260509231120 87 360 6.1 9.6 0.00 0.01 0.01 55 1009.2
20260509231040 87 360 5.2 9.6 0.00 0.01 0.01 54 1009.3
20260509230919 87 360 4.3 9.6 0.00 0.01 0.01 54 1009.3
20260509230821 87 360 5.2 9.6 0.00 0.01 0.01 54 1009.3
20260509230721 87 360 5.2 9.6 0.00 0.01 0.01 53 1009.2
20260509230621 87 360 5.2 9.6 0.00 0.01 0.01 52 1009.3
20260509230526 87 360 5.2 9.6 0.00 0.01 0.01 52 1009.3
20260509230427 87 360 5.2 9.6 0.00 0.01 0.01 52 1009.3
20260509230329 87 360 6.1 9.6 0.00 0.01 0.01 52 1009.2
20260509230248 87 360 5.2 9.6 0.00 0.01 0.01 52 1009.3
20260509230148 87 360 6.1 9.6 0.00 0.01 0.01 51 1009.2
20260509230025 87 360 6.1 9.6 0.00 0.01 0.01 51 1009.3
20260509225924 87 360 6.1 9.6 0.00 0.01 0.01 51 1009.3
20260509225825 87 360 5.2 9.6 0.00 0.01 0.01 51 1009.3
20260509225728 87 360 5.2 9.6 0.00 0.01 0.01 51 1009.2
20260509225627 88 360 4.3 9.6 0.00 0.01 0.01 51 1009.2
20260509225528 87 360 4.3 9.6 0.00 0.01 0.01 51 1009.3
20260509225429 87 360 5.2 9.6 0.00 0.01 0.01 51 1009.2
20260509225328 87 360 4.3 10.4 0.00 0.01 0.01 50 1009.2
20260509225229 87 360 4.3 10.4 0.00 0.01 0.01 49 1009.3
20260509225150 88 360 5.2 10.4 0.00 0.01 0.01 49 1009.3
20260509225032 88 360 5.2 10.4 0.00 0.01 0.01 49 1009.2
20260509224953 88 360 5.2 10.4 0.00 0.01 0.01 48 1009.2
20260509224852 88 360 4.3 10.4 0.00 0.01 0.01 48 1009.3
20260509224733 88 360 5.2 10.4 0.00 0.01 0.01 47 1009.2
20260509224633 88 360 5.2 10.4 0.00 0.01 0.01 47 1009.2
20260509224535 88 360 5.2 10.4 0.00 0.01 0.01 47 1009.2
20260509224435 88 360 5.2 10.4 0.00 0.01 0.01 47 1009.2
20260509224322 88 360 5.2 10.4 0.00 0.01 0.01 46 1009.3
20260509224222 88 360 6.1 10.4 0.00 0.01 0.01 46 1009.2
20260509224122 88 360 5.2 10.4 0.00 0.01 0.01 47 1009.4
20260509224043 88 360 4.3 11.3 0.00 0.01 0.01 47 1009.2
20260509223923 88 115 4.3 11.3 0.00 0.01 0.01 47 1009.2
20260509223823 88 360 4.3 11.3 0.00 0.01 0.01 47 1009.3
20260509223724 88 360 4.3 11.3 0.00 0.01 0.01 47 1009.3
20260509223628 88 360 4.3 11.3 0.00 0.01 0.01 47 1009.3
20260509223528 88 360 5.2 11.3 0.00 0.01 0.01 48 1009.3
20260509223430 88 360 5.2 9.6 0.00 0.01 0.01 47 1009.3
20260509223331 88 360 5.2 9.6 0.00 0.01 0.01 47 1009.3
20260509223252 88 360 6.1 9.6 0.00 0.01 0.01 47 1009.2
20260509223152 88 360 5.2 9.6 0.00 0.01 0.01 48 1009.2
20260509223030 88 360 5.2 9.6 0.00 0.01 0.01 48 1009.2
20260509222951 88 360 5.2 9.6 0.00 0.01 0.01 48 1009.2
20260509222834 88 360 5.2 9.6 0.00 0.01 0.01 48 1009.2
20260509222736 88 360 4.3 9.6 0.00 0.01 0.01 48 1009.2
20260509222616 88 360 4.3 8.7 0.00 0.01 0.01 49 1009.1
20260509222517 88 360 5.2 8.7 0.00 0.01 0.01 50 1009.1
20260509222418 88 360 5.2 8.7 0.00 0.01 0.01 51 1009.1
20260509222338 88 360 4.3 8.7 0.00 0.01 0.01 51 1009.1
20260509222218 88 360 4.3 8.7 0.00 0.01 0.01 51 1009.1
20260509222122 88 360 4.3 8.7 0.00 0.01 0.01 51 1009.2
20260509222023 88 360 5.2 8.7 0.00 0.01 0.01 51 1009.0
20260509221923 88 360 4.3 8.7 0.00 0.01 0.01 51 1009.2
20260509221824 88 360 3.5 8.7 0.00 0.01 0.01 52 1009.1
20260509221725 88 360 3.5 8.7 0.00 0.01 0.01 52 1009.1
20260509221625 88 360 4.3 8.7 0.00 0.01 0.01 52 1009.1
20260509221529 87 360 4.3 8.7 0.00 0.01 0.01 52 1009.1
20260509221431 87 360 4.3 7.8 0.00 0.01 0.01 52 1009.1
20260509221332 87 360 4.3 7.8 0.00 0.01 0.01 52 1009.1
20260509221232 87 360 4.3 7.8 0.00 0.01 0.01 52 1009.1
20260509221154 87 360 4.3 7.8 0.00 0.01 0.01 53 1009.1
20260509221034 87 360 4.3 7.8 0.00 0.01 0.01 52 1009.1
20260509220955 87 360 4.3 7.8 0.00 0.01 0.01 52 1009.1
20260509220854 87 360 4.3 7.8 0.00 0.01 0.01 52 1009.0
20260509220718 88 360 3.5 7.0 0.00 0.01 0.01 53 1009.0
20260509220619 88 360 3.5 5.2 0.00 0.01 0.01 53 1009.0
20260509220519 88 360 3.5 5.2 0.00 0.01 0.01 53 1009.0
20260509220420 88 360 3.5 5.2 0.00 0.01 0.01 53 1009.0
20260509220322 88 360 2.6 5.2 0.00 0.01 0.01 53 1009.0
20260509220221 88 360 2.6 5.2 0.00 0.01 0.01 53 1009.1
20260509220126 88 69 2.6 5.2 0.00 0.01 0.01 53 1009.1
20260509220024 88 71 1.7 5.2 0.00 0.01 0.01 53 1009.2
20260509215925 88 360 1.7 5.2 0.00 0.01 0.01 53 1009.1
20260509215826 88 360 1.7 7.0 0.00 0.01 0.01 53 1009.1
20260509215746 88 360 1.7 7.0 0.00 0.01 0.01 53 1009.1
20260509215626 88 360 1.7 7.0 0.00 0.01 0.01 53 1009.2
20260509215526 88 360 1.7 7.0 0.00 0.01 0.01 53 1009.1
20260509215430 88 360 1.7 7.0 0.00 0.01 0.01 53 1009.1
20260509215351 88 360 1.7 7.0 0.00 0.01 0.01 53 1009.1
20260509215231 88 360 2.6 7.0 0.00 0.01 0.01 54 1009.2
20260509215151 88 360 2.6 7.0 0.00 0.01 0.01 54 1009.1
20260509215030 88 360 2.6 7.0 0.00 0.01 0.01 54 1009.2
20260509214931 87 360 1.7 8.7 0.00 0.01 0.01 54 1009.2
20260509214831 87 360 1.7 8.7 0.00 0.01 0.01 54 1009.2
20260509214732 87 360 1.7 8.7 0.00 0.01 0.01 54 1009.2
20260509214635 87 360 1.7 8.7 0.00 0.01 0.01 54 1009.2
20260509214535 87 360 1.7 8.7 0.00 0.01 0.01 54 1009.2
20260509214416 87 360 1.7 8.7 0.00 0.01 0.01 54 1009.3
20260509214317 87 360 2.6 8.7 0.00 0.01 0.01 55 1009.3
20260509214217 86 360 3.5 11.3 0.00 0.01 0.01 55 1009.2
20260509214117 86 360 3.5 11.3 0.00 0.01 0.01 55 1009.3
20260509214040 86 360 3.5 11.3 0.00 0.01 0.01 55 1009.3
20260509213922 86 360 3.5 11.3 0.00 0.01 0.01 55 1009.4
20260509213823 86 360 3.5 11.3 0.00 0.01 0.01 55 1009.3
20260509213744 86 360 4.3 11.3 0.00 0.01 0.01 55 1009.3
20260509213623 86 360 4.3 11.3 0.00 0.01 0.01 55 1009.3
20260509213523 86 360 4.3 11.3 0.00 0.01 0.01 55 1009.4
20260509213425 86 360 5.2 11.3 0.00 0.01 0.01 55 1009.4
20260509213344 85 360 5.2 11.3 0.00 0.01 0.01 54 1009.5
20260509213229 85 360 6.1 11.3 0.00 0.01 0.01 54 1009.5
20260509213130 85 360 6.1 13.0 0.00 0.01 0.01 52 1009.5
20260509213031 85 360 6.1 13.0 0.00 0.01 0.01 52 1009.4
20260509212932 85 360 5.2 13.0 0.00 0.01 0.01 52 1009.4
20260509212832 85 360 6.1 13.0 0.00 0.01 0.01 52 1009.5
20260509212734 85 360 6.1 13.0 0.00 0.01 0.01 52 1009.6
20260509212619 85 360 6.1 13.0 0.00 0.01 0.01 52 1009.6
20260509212519 85 360 7.0 13.0 0.00 0.01 0.01 53 1009.7
20260509212419 84 360 7.8 13.9 0.00 0.01 0.01 52 1009.7
20260509212320 84 360 7.0 13.9 0.00 0.01 0.01 52 1009.7
20260509212220 84 360 7.0 13.9 0.00 0.01 0.01 52 1009.8
20260509212119 83 360 7.0 17.4 0.00 0.01 0.01 53 1009.7
20260509212020 83 360 6.1 17.4 0.00 0.01 0.01 53 1009.8
20260509211940 83 360 7.0 17.4 0.00 0.01 0.01 54 1009.7
20260509211844 83 360 7.8 17.4 0.00 0.01 0.01 53 1009.8
20260509211723 83 360 7.8 17.4 0.00 0.01 0.01 53 1009.8
20260509211624 82 360 7.8 17.4 0.00 0.01 0.01 54 1009.8
20260509211525 82 360 7.0 17.4 0.00 0.01 0.01 54 1009.8
20260509211446 82 360 6.1 17.4 0.00 0.01 0.01 54 1009.8
20260509211324 82 360 7.0 19.1 0.00 0.01 0.01 54 1009.9
20260509211225 82 360 8.7 19.1 0.00 0.01 0.01 55 1009.9
20260509211145 82 360 9.6 19.1 0.00 0.01 0.01 55 1009.9
20260509211029 82 360 11.3 19.1 0.00 0.01 0.01 55 1009.9
20260509210929 82 360 12.2 19.1 0.00 0.01 0.01 55 1009.9
20260509210830 82 360 11.3 19.1 0.00 0.01 0.01 54 1010.0
20260509210732 82 360 10.4 19.1 0.00 0.01 0.01 55 1010.0
20260509210632 82 360 10.4 19.1 0.00 0.01 0.01 55 1010.1
20260509210533 83 360 10.4 17.4 0.00 0.01 0.01 56 1010.1
20260509210418 83 360 9.6 17.4 0.00 0.01 0.01 55 1010.0
20260509210338 83 360 9.6 17.4 0.00 0.01 0.01 55 1009.9
20260509210237 83 360 9.6 17.4 0.00 0.01 0.01 55 1009.9
20260509210158 83 360 9.6 17.4 0.00 0.01 0.01 56 1010.0
20260509210058 83 360 9.6 17.4 0.00 0.01 0.01 57 1009.9
20260509205957 83 360 9.6 17.4 0.00 0.01 0.01 57 1009.9
20260509205818 83 360 9.6 20.0 0.00 0.01 0.01 56 1010.0
20260509205717 83 360 8.7 20.0 0.00 0.01 0.01 55 1010.0
20260509205621 83 360 7.8 20.0 0.00 0.01 0.01 55 1010.0
20260509205522 83 360 7.8 20.0 0.00 0.01 0.01 55 1010.0
20260509205422 83 360 6.1 20.0 0.00 0.01 0.01 55 1010.0
20260509205323 83 360 7.0 20.0 0.00 0.01 0.01 55 1010.0
20260509205223 83 360 8.7 20.0 0.00 0.01 0.01 55 1009.9
20260509205124 83 360 9.6 20.0 0.00 0.01 0.01 55 1010.0
20260509205025 83 360 10.4 20.0 0.00 0.01 0.01 55 1010.1
20260509204929 84 360 9.6 20.0 0.00 0.01 0.01 54 1010.1
20260509204829 84 360 9.6 20.0 0.00 0.01 0.01 53 1010.1
20260509204730 85 360 7.0 20.0 0.00 0.01 0.01 56 1010.1
20260509204630 85 360 5.2 17.4 0.00 0.01 0.01 60 1010.1
20260509204530 85 360 4.3 17.4 0.00 0.01 0.01 60 1010.1
20260509204430 85 360 4.3 17.4 0.00 0.01 0.01 60 1010.1
20260509204351 84 360 5.2 17.4 0.00 0.01 0.01 61 1010.1
20260509204250 84 360 6.1 17.4 0.00 0.01 0.01 61 1010.1
20260509204134 84 360 7.0 17.4 0.00 0.01 0.01 61 1010.2
20260509204054 84 360 7.8 17.4 0.00 0.01 0.01 61 1010.2
20260509203933 84 360 7.8 17.4 0.00 0.01 0.01 61 1010.2
20260509203831 84 360 9.6 17.4 0.00 0.01 0.01 61 1010.2
20260509203731 84 360 10.4 17.4 0.00 0.01 0.01 62 1010.3
20260509203632 84 360 9.6 17.4 0.00 0.01 0.01 62 1010.3
20260509203516 84 360 8.7 15.6 0.00 0.01 0.01 64 1010.2
20260509203418 84 360 7.0 12.2 0.00 0.01 0.01 66 1010.2
20260509203318 84 360 5.2 12.2 0.00 0.01 0.01 66 1010.3
20260509203219 84 360 5.2 12.2 0.00 0.01 0.01 66 1010.3
20260509203119 84 360 5.2 10.4 0.00 0.01 0.01 66 1010.3
20260509203020 84 360 5.2 10.4 0.00 0.01 0.01 66 1010.2
20260509202919 84 360 5.2 10.4 0.00 0.01 0.01 65 1010.3
20260509202824 84 360 5.2 10.4 0.00 0.01 0.01 66 1010.3
20260509202723 84 360 6.1 10.4 0.00 0.01 0.01 65 1010.3
20260509202621 84 360 7.0 11.3 0.00 0.01 0.01 65 1010.3
20260509202521 85 360 6.1 13.9 0.00 0.01 0.01 65 1010.3
20260509202421 85 360 6.1 13.9 0.00 0.01 0.01 65 1010.4
20260509202322 85 360 6.1 13.9 0.00 0.01 0.01 65 1010.3
20260509202223 85 360 6.1 13.9 0.00 0.01 0.01 65 1010.3
20260509202128 85 360 6.1 13.9 0.00 0.01 0.01 65 1010.3
20260509202049 85 360 7.0 13.9 0.00 0.01 0.01 63 1010.3
20260509201928 86 360 7.8 13.9 0.00 0.01 0.01 63 1010.3
20260509201828 86 360 8.7 13.9 0.00 0.01 0.01 61 1010.3
20260509201729 87 360 7.8 13.9 0.00 0.01 0.01 61 1010.2
20260509201629 88 360 7.0 13.9 0.00 0.01 0.01 60 1010.3
20260509201529 89 360 6.1 13.0 0.00 0.01 0.01 59 1010.3
20260509201434 90 360 5.2 10.4 0.00 0.01 0.01 55 1010.3
20260509201336 90 360 5.2 10.4 0.00 0.01 0.01 55 1010.3
20260509201216 91 360 5.2 10.4 0.00 0.01 0.01 55 1010.3
20260509201137 91 360 5.2 10.4 0.00 0.01 0.01 55 1010.3
20260509201058 91 360 5.2 10.4 0.00 0.01 0.01 55 1010.3
20260509200957 90 17 5.2 10.4 0.00 0.01 0.01 55 1010.3
20260509200816 90 360 4.3 9.6 0.00 0.01 0.01 55 1010.3
20260509200721 90 344 4.3 9.6 0.00 0.01 0.01 55 1010.4
20260509200622 90 360 3.5 7.0 0.00 0.01 0.01 55 1010.4
20260509200523 90 360 3.5 7.0 0.00 0.01 0.01 54 1010.3
20260509200424 90 360 3.5 7.0 0.00 0.01 0.01 54 1010.4
20260509200344 91 360 2.6 7.0 0.00 0.01 0.01 54 1010.4
20260509200224 91 360 2.6 5.2 0.00 0.01 0.01 54 1010.3
20260509200123 91 360 2.6 4.3 0.00 0.01 0.01 53 1010.3
20260509200028 91 360 1.7 4.3 0.00 0.01 0.01 53 1010.3
20260509195928 91 360 1.7 3.5 0.00 0.01 0.01 53 1010.4
20260509195828 91 360 1.7 3.5 0.00 0.01 0.01 53 1010.4
20260509195730 91 360 1.7 3.5 0.00 0.01 0.01 53 1010.4
20260509195628 92 360 0.9 4.3 0.00 0.01 0.01 51 1010.4
20260509195528 92 360 1.7 4.3 0.00 0.01 0.01 51 1010.4
20260509195428 92 360 1.7 4.3 0.00 0.01 0.01 51 1010.4
20260509195333 92 360 1.7 4.3 0.00 0.01 0.01 52 1010.5
20260509195233 93 360 0.9 4.3 0.00 0.01 0.01 52 1010.4
20260509195134 93 360 0.9 4.3 0.00 0.01 0.01 52 1010.5
20260509195034 92 360 0.9 4.3 0.00 0.01 0.01 51 1010.4
20260509194954 92 360 0.9 4.3 0.00 0.01 0.01 52 1010.5
20260509194834 92 360 1.7 7.0 0.00 0.01 0.01 51 1010.4
20260509194719 92 360 1.7 7.0 0.00 0.01 0.01 53 1010.4
20260509194620 92 360 2.6 7.0 0.00 0.01 0.01 53 1010.4
20260509194521 92 360 2.6 7.0 0.00 0.01 0.01 52 1010.4
20260509194420 92 360 3.5 7.0 0.00 0.01 0.01 52 1010.4
20260509194341 92 360 3.5 7.0 0.00 0.01 0.01 52 1010.5
20260509194221 92 360 2.6 7.0 0.00 0.01 0.01 52 1010.4
20260509194122 92 360 2.6 7.0 0.00 0.01 0.01 52 1010.5
20260509194025 92 360 2.6 7.0 0.00 0.01 0.01 53 1010.4
20260509193927 92 360 1.7 7.0 0.00 0.01 0.01 53 1010.4
20260509193846 92 360 1.7 5.2 0.00 0.01 0.01 53 1010.5
20260509193746 92 360 2.6 5.2 0.00 0.01 0.01 53 1010.5
20260509193626 92 360 2.6 5.2 0.00 0.01 0.01 53 1010.5
20260509193525 92 360 1.7 5.2 0.00 0.01 0.01 53 1010.4
20260509193428 92 360 1.7 5.2 0.00 0.01 0.01 53 1010.4
20260509193327 92 360 1.7 5.2 0.00 0.01 0.01 53 1010.4
20260509193253 92 360 1.7 7.8 0.00 0.01 0.01 53 1010.4
20260509193132 92 360 1.7 7.8 0.00 0.01 0.01 53 1010.4
20260509193033 92 360 1.7 7.8 0.00 0.01 0.01 53 1010.5
20260509192934 92 360 2.6 7.8 0.00 0.01 0.01 53 1010.4
20260509192835 92 360 2.6 7.8 0.00 0.01 0.01 53 1010.5
20260509192737 92 360 2.6 7.8 0.00 0.01 0.01 53 1010.5
20260509192620 92 360 3.5 7.8 0.00 0.01 0.01 53 1010.6
20260509192520 91 360 3.5 7.8 0.00 0.01 0.01 53 1010.6
20260509192422 91 360 3.5 7.8 0.00 0.01 0.01 55 1010.6
20260509192322 91 360 2.6 7.0 0.00 0.01 0.01 54 1010.6
20260509192223 91 360 2.6 7.0 0.00 0.01 0.01 50 1010.6
20260509192144 92 360 2.6 7.0 0.00 0.01 0.01 50 1010.6
20260509192023 92 360 2.6 7.0 0.00 0.01 0.01 50 1010.7
20260509191946 93 360 2.6 7.0 0.00 0.01 0.01 50 1010.6
20260509191830 93 360 2.6 7.0 0.00 0.01 0.01 50 1010.6
20260509191750 93 360 1.7 7.0 0.00 0.01 0.01 50 1010.6
20260509191630 94 360 1.7 7.0 0.00 0.01 0.01 51 1010.6
20260509191531 94 360 1.7 7.0 0.00 0.01 0.01 51 1010.7
20260509191451 94 360 1.7 7.0 0.00 0.01 0.01 51 1010.7
20260509191331 94 360 1.7 7.0 0.00 0.01 0.01 51 1010.7
20260509191251 94 360 2.6 7.0 0.00 0.01 0.01 51 1010.6
20260509191130 94 360 2.6 7.0 0.00 0.01 0.01 51 1010.6
20260509191051 94 360 1.7 7.0 0.00 0.01 0.01 53 1010.7
20260509190934 94 360 2.6 7.0 0.00 0.01 0.01 53 1010.7
20260509190834 94 360 2.6 7.0 0.00 0.01 0.01 53 1010.7
20260509190755 93 360 2.6 7.0 0.00 0.01 0.01 53 1010.7
20260509190634 93 360 2.6 7.0 0.00 0.01 0.01 53 1010.7
20260509190535 93 360 2.6 7.0 0.00 0.01 0.01 54 1010.8
20260509190435 93 360 2.6 7.0 0.00 0.01 0.01 53 1010.7
20260509190320 93 360 2.6 7.0 0.00 0.01 0.01 53 1010.8
20260509190220 93 360 2.6 7.0 0.00 0.01 0.01 53 1010.8
20260509190120 93 360 2.6 7.0 0.00 0.01 0.01 52 1010.8
20260509190020 93 360 2.6 7.0 0.00 0.01 0.01 52 1010.8
20260509185941 93 360 1.7 7.0 0.00 0.01 0.01 52 1010.9
20260509185709 92 360 1.7 5.2 0.00 0.01 0.01 54 1010.9
20260509185511 92 360 1.7 5.2 0.00 0.01 0.01 54 1010.9
20260509185217 92 360 1.7 5.2 0.00 0.01 0.01 54 1010.9
20260509185117 92 360 1.7 5.2 0.00 0.01 0.01 54 1010.9
20260509185017 92 360 1.7 5.2 0.00 0.01 0.01 54 1011.0
20260509184918 92 360 1.7 5.2 0.00 0.01 0.01 54 1011.0
20260509184819 92 360 1.7 8.7 0.00 0.01 0.01 54 1011.0
20260509184739 92 360 1.7 8.7 0.00 0.01 0.01 54 1011.0
20260509184618 92 360 2.6 8.7 0.00 0.01 0.01 55 1011.1
20260509184523 92 360 2.6 8.7 0.00 0.01 0.01 55 1011.0
20260509184443 92 360 2.6 8.7 0.00 0.01 0.01 56 1011.1
20260509184322 92 360 2.6 8.7 0.00 0.01 0.01 56 1011.2
20260509184223 91 360 2.6 8.7 0.00 0.01 0.01 56 1011.2
20260509184144 91 360 2.6 8.7 0.00 0.01 0.01 56 1011.2
20260509184023 91 360 2.6 8.7 0.00 0.01 0.01 57 1011.2
20260509183923 91 360 2.6 8.7 0.00 0.01 0.01 57 1011.3
20260509183828 91 360 3.5 8.7 0.00 0.01 0.01 56 1011.3
20260509183728 91 360 3.5 8.7 0.00 0.01 0.01 57 1011.3
20260509183630 91 360 3.5 8.7 0.00 0.01 0.01 57 1011.2
20260509183550 91 360 3.5 8.7 0.00 0.01 0.01 57 1011.2
20260509183429 90 360 2.6 7.0 0.00 0.01 0.01 58 1011.3
20260509183330 90 360 1.7 7.0 0.00 0.01 0.01 58 1011.3
20260509183252 90 360 2.6 7.8 0.00 0.01 0.01 58 1011.3
20260509183152 89 360 2.6 7.8 0.00 0.01 0.01 58 1011.3
20260509183035 89 360 2.6 7.8 0.00 0.01 0.01 58 1011.3
20260509182916 89 360 2.6 7.8 0.00 0.01 0.01 58 1011.2
20260509182816 89 360 3.5 7.8 0.00 0.01 0.01 58 1011.3
20260509182737 89 360 3.5 7.8 0.00 0.01 0.01 58 1011.3
20260509182636 89 360 3.5 7.8 0.00 0.01 0.01 59 1011.3
20260509182516 89 360 3.5 7.8 0.00 0.01 0.01 59 1011.4
20260509182417 89 360 3.5 7.8 0.00 0.01 0.01 58 1011.4
20260509182321 89 360 2.6 5.2 0.00 0.01 0.01 58 1011.4
20260509182243 90 360 2.6 5.2 0.00 0.01 0.01 59 1011.5
20260509182143 90 360 2.6 5.2 0.00 0.01 0.01 58 1011.4
20260509182022 90 360 1.7 4.3 0.00 0.01 0.01 58 1011.5
20260509181923 91 360 1.7 4.3 0.00 0.01 0.01 55 1011.5
20260509181823 91 360 1.7 4.3 0.00 0.01 0.01 55 1011.5
20260509181723 92 360 1.7 4.3 0.00 0.01 0.01 55 1011.6
20260509181629 93 360 1.7 4.3 0.00 0.01 0.01 54 1011.6
20260509181549 93 360 1.7 4.3 0.00 0.01 0.01 54 1011.6
20260509181429 93 360 1.7 4.3 0.00 0.01 0.01 54 1011.6
20260509181350 93 360 1.7 4.3 0.00 0.01 0.01 55 1011.6
20260509181248 93 360 1.7 5.2 0.00 0.01 0.01 56 1011.7
20260509181127 93 360 1.7 5.2 0.00 0.01 0.01 56 1011.7
20260509181028 93 360 1.7 5.2 0.00 0.01 0.01 56 1011.7
20260509180928 93 360 1.7 5.2 0.00 0.01 0.01 56 1011.6
20260509180832 93 360 2.6 5.2 0.00 0.01 0.01 56 1011.6
20260509180732 93 360 2.6 5.2 0.00 0.01 0.01 56 1011.6
20260509180633 93 360 2.6 5.2 0.00 0.01 0.01 55 1011.6
20260509180554 93 360 2.6 5.2 0.00 0.01 0.01 56 1011.6
20260509180433 93 360 1.7 5.2 0.00 0.01 0.01 56 1011.5
20260509180333 93 360 1.7 5.2 0.00 0.01 0.01 57 1011.5
20260509180253 93 360 1.7 5.2 0.00 0.01 0.01 57 1011.6
20260509180133 92 360 1.7 5.2 0.00 0.01 0.01 57 1011.6
20260509180018 92 360 1.7 5.2 0.00 0.01 0.01 57 1011.6
20260509175938 92 360 1.7 5.2 0.00 0.01 0.01 57 1011.6
20260509175819 92 360 1.7 5.2 0.00 0.01 0.01 57 1011.7
20260509175719 92 360 1.7 5.2 0.00 0.01 0.01 57 1011.6
20260509175618 92 360 1.7 5.2 0.00 0.01 0.01 57 1011.7
20260509175539 91 360 1.7 5.2 0.00 0.01 0.01 59 1011.7
20260509175418 91 360 1.7 5.2 0.00 0.01 0.01 59 1011.7
20260509175322 91 360 1.7 5.2 0.00 0.01 0.01 59 1011.8
20260509175222 91 360 1.7 5.2 0.00 0.01 0.01 60 1011.8
20260509175123 91 360 1.7 5.2 0.00 0.01 0.01 60 1011.8
20260509175043 90 360 1.7 3.5 0.00 0.01 0.01 60 1011.9
20260509174924 90 360 1.7 3.5 0.00 0.01 0.01 61 1011.8
20260509174824 90 360 1.7 3.5 0.00 0.01 0.01 61 1011.8
20260509174725 90 360 1.7 5.2 0.00 0.01 0.01 61 1011.8
20260509174629 90 360 1.7 5.2 0.00 0.01 0.01 63 1011.8
20260509174528 90 360 1.7 5.2 0.00 0.01 0.01 63 1011.8
20260509174429 89 360 1.7 5.2 0.00 0.01 0.01 63 1011.8
20260509174330 89 360 1.7 7.0 0.00 0.01 0.01 63 1011.9
20260509174230 88 360 1.7 7.0 0.00 0.01 0.01 63 1011.9
20260509174131 88 360 1.7 7.0 0.00 0.01 0.01 63 1011.9
20260509174030 88 360 1.7 7.0 0.00 0.01 0.01 62 1012.0
20260509173951 88 360 2.6 7.0 0.00 0.01 0.01 62 1012.0
20260509173834 88 360 1.7 7.0 0.00 0.01 0.01 63 1012.1
20260509173735 88 360 1.7 7.0 0.00 0.01 0.01 63 1012.1
20260509173655 88 284 1.7 7.0 0.00 0.01 0.01 66 1012.1
20260509173533 88 360 2.6 7.0 0.00 0.01 0.01 66 1012.2
20260509173434 88 360 2.6 7.0 0.00 0.01 0.01 66 1012.3
20260509173334 87 360 2.6 7.0 0.00 0.01 0.01 66 1012.3
20260509173235 87 360 1.7 5.2 0.00 0.01 0.01 66 1012.3
20260509173119 87 360 1.7 7.0 0.00 0.01 0.01 66 1012.3
20260509173020 87 360 1.7 7.0 0.00 0.01 0.01 64 1012.3
20260509172921 87 360 1.7 7.8 0.00 0.01 0.01 64 1012.3
20260509172823 88 360 1.7 7.8 0.00 0.01 0.01 64 1012.3
20260509172723 88 360 1.7 7.8 0.00 0.01 0.01 64 1012.3
20260509172642 88 360 1.7 7.8 0.00 0.01 0.01 67 1012.3
20260509172522 88 360 1.7 7.8 0.00 0.01 0.01 67 1012.3
20260509172428 87 360 1.7 7.8 0.00 0.01 0.01 67 1012.3
20260509172328 87 360 1.7 9.6 0.00 0.01 0.01 67 1012.2
20260509172229 87 360 1.7 9.6 0.00 0.01 0.01 66 1012.2
20260509172129 86 360 2.6 9.6 0.00 0.01 0.01 67 1012.2
20260509172030 86 360 2.6 9.6 0.00 0.01 0.01 68 1012.1
20260509171930 86 360 2.6 9.6 0.00 0.01 0.01 68 1012.2
20260509171850 86 360 2.6 9.6 0.00 0.01 0.01 67 1012.2
20260509171735 86 360 2.6 9.6 0.00 0.01 0.01 65 1012.1
20260509171616 87 360 3.5 9.6 0.00 0.01 0.01 65 1012.2
20260509171516 87 360 3.5 9.6 0.00 0.01 0.01 65 1012.1
20260509171417 87 360 3.5 9.6 0.00 0.01 0.01 65 1012.0
20260509171318 87 360 2.6 8.7 0.00 0.01 0.01 68 1012.0
20260509171218 87 360 2.6 8.7 0.00 0.01 0.01 68 1012.0
20260509171122 87 360 2.6 8.7 0.00 0.01 0.01 68 1012.1
20260509171022 87 360 2.6 8.7 0.00 0.01 0.01 68 1012.0
20260509170923 86 360 2.6 8.7 0.00 0.01 0.01 68 1012.0
20260509170843 86 360 2.6 5.2 0.00 0.01 0.01 69 1012.1
20260509170723 86 360 2.6 5.2 0.00 0.01 0.01 69 1012.1
20260509170623 85 360 2.6 5.2 0.00 0.01 0.01 69 1012.1
20260509170524 85 360 2.6 5.2 0.00 0.01 0.01 69 1012.1
20260509170429 85 360 2.6 5.2 0.00 0.01 0.01 69 1012.1
20260509170329 85 360 2.6 5.2 0.00 0.01 0.01 69 1012.2
20260509170229 85 360 2.6 5.2 0.00 0.01 0.01 68 1012.2
20260509170150 85 360 1.7 5.2 0.00 0.01 0.01 68 1012.2
20260509170030 86 360 1.7 7.0 0.00 0.01 0.01 68 1012.1
20260509165931 86 360 1.7 7.0 0.00 0.01 0.01 68 1012.3
20260509165831 86 360 1.7 7.0 0.00 0.01 0.01 68 1012.2
20260509165757 86 360 1.7 7.0 0.00 0.01 0.01 68 1012.2
20260509165635 86 360 2.6 7.8 0.00 0.01 0.01 70 1012.3
20260509165535 86 360 2.6 7.8 0.00 0.01 0.01 69 1012.3
20260509165415 86 360 2.6 7.8 0.00 0.01 0.01 69 1012.3
20260509165316 86 360 2.6 7.8 0.00 0.01 0.01 69 1012.3
20260509165219 85 360 2.6 7.8 0.00 0.01 0.01 69 1012.3
20260509165119 85 360 2.6 7.8 0.00 0.01 0.01 69 1012.2
20260509165044 85 360 2.6 7.8 0.00 0.01 0.01 69 1012.4
20260509164924 86 360 2.6 7.8 0.00 0.01 0.01 66 1012.3
20260509164825 86 360 2.6 7.8 0.00 0.01 0.01 66 1012.3
20260509164725 86 360 2.6 7.8 0.00 0.01 0.01 66 1012.3
20260509164646 86 360 2.6 7.8 0.00 0.01 0.01 68 1012.2
20260509164545 86 360 1.7 7.8 0.00 0.01 0.01 68 1012.3
20260509164424 87 360 2.6 7.8 0.00 0.01 0.01 65 1012.1
20260509164324 88 360 1.7 7.0 0.00 0.01 0.01 65 1012.3
20260509164229 88 360 1.7 4.3 0.00 0.01 0.01 67 1012.3
20260509164128 88 360 1.7 4.3 0.00 0.01 0.01 67 1012.3
20260509164028 87 360 1.7 4.3 0.00 0.01 0.01 67 1012.3
20260509163928 87 360 1.7 4.3 0.00 0.01 0.01 67 1012.3
20260509163828 87 360 1.7 4.3 0.00 0.01 0.01 68 1012.3
20260509163729 87 360 1.7 4.3 0.00 0.01 0.01 67 1012.3
20260509163630 87 360 1.7 4.3 0.00 0.01 0.01 67 1012.3
20260509163534 87 360 0.9 4.3 0.00 0.01 0.01 67 1012.3
20260509163433 87 360 0.9 4.3 0.00 0.01 0.01 67 1012.5
20260509163353 87 360 0.9 4.3 0.00 0.01 0.01 67 1012.4
20260509163253 87 360 1.7 4.3 0.00 0.01 0.01 67 1012.4
20260509163152 87 360 1.7 4.3 0.00 0.01 0.01 67 1012.4
20260509163032 87 360 1.7 4.3 0.00 0.01 0.01 67 1012.3
20260509162932 87 360 1.7 4.3 0.00 0.01 0.01 69 1012.4
20260509162834 86 360 1.7 4.3 0.00 0.01 0.01 69 1012.4
20260509162737 86 360 1.7 4.3 0.00 0.01 0.01 71 1012.3
20260509162617 86 360 1.7 4.3 0.00 0.01 0.01 71 1012.3
20260509162537 85 360 1.7 4.3 0.00 0.01 0.01 70 1012.3
20260509162417 85 360 1.7 4.3 0.00 0.01 0.01 70 1012.3
20260509162318 85 360 0.9 4.3 0.00 0.01 0.01 70 1012.3
20260509162218 85 360 0.9 4.3 0.00 0.01 0.01 71 1012.3
20260509162118 85 360 1.7 4.3 0.00 0.01 0.01 69 1012.3
20260509162017 86 360 1.7 7.8 0.00 0.01 0.01 69 1012.4
20260509161922 86 360 1.7 7.8 0.00 0.01 0.01 70 1012.3
20260509161822 85 360 1.7 7.8 0.00 0.01 0.01 70 1012.3
20260509161723 85 360 2.6 7.8 0.00 0.01 0.01 72 1012.3
20260509161623 85 360 2.6 7.8 0.00 0.01 0.01 72 1012.2
20260509161524 85 360 2.6 7.8 0.00 0.01 0.01 72 1012.3
20260509161423 84 360 2.6 7.8 0.00 0.01 0.01 72 1012.3
20260509161328 84 360 2.6 7.8 0.00 0.01 0.01 72 1012.3
20260509161230 84 360 2.6 7.8 0.00 0.01 0.01 72 1012.3
20260509161131 84 360 1.7 7.8 0.00 0.01 0.01 72 1012.3
20260509161032 84 360 1.7 7.8 0.00 0.01 0.01 71 1012.2
20260509160951 84 360 1.7 7.8 0.00 0.01 0.01 74 1012.3
20260509160832 84 360 0.9 4.3 0.00 0.01 0.01 74 1012.3
20260509160733 84 360 0.9 4.3 0.00 0.01 0.01 76 1012.2
20260509160637 83 360 0.9 4.3 0.00 0.01 0.01 76 1012.3
20260509160537 83 360 0.9 5.2 0.00 0.01 0.01 76 1012.3
20260509160436 83 360 1.7 5.2 0.00 0.01 0.01 76 1012.3
20260509160335 82 360 1.7 5.2 0.00 0.01 0.01 76 1012.3
20260509160216 82 360 1.7 5.2 0.00 0.01 0.01 76 1012.3
20260509160116 81 360 1.7 5.2 0.00 0.01 0.01 76 1012.3
20260509160017 81 360 1.7 7.0 0.00 0.01 0.01 77 1012.3
20260509155922 81 360 1.7 7.0 0.00 0.01 0.01 78 1012.3
20260509155843 81 360 1.7 7.0 0.00 0.01 0.01 78 1012.4
20260509155742 81 360 1.7 7.0 0.00 0.01 0.01 78 1012.4
20260509155641 81 360 1.7 7.0 0.00 0.01 0.01 78 1012.3
20260509155521 81 360 1.7 7.0 0.00 0.01 0.01 79 1012.4
20260509155421 80 360 1.7 7.0 0.00 0.01 0.01 81 1012.4
20260509155320 80 360 1.7 7.0 0.00 0.01 0.01 81 1012.4
20260509155220 80 360 2.6 7.0 0.00 0.01 0.01 81 1012.4
20260509155121 80 360 2.6 7.0 0.00 0.01 0.01 82 1012.4
20260509155026 79 360 2.6 7.0 0.00 0.01 0.01 82 1012.4
20260509154926 79 360 2.6 7.0 0.00 0.01 0.01 82 1012.4
20260509154846 79 360 2.6 7.0 0.00 0.01 0.01 82 1012.4
20260509154726 79 360 3.5 7.0 0.00 0.01 0.01 82 1012.4
20260509154626 79 360 2.6 7.0 0.00 0.01 0.01 83 1012.4
20260509154526 79 360 2.6 7.0 0.00 0.01 0.01 83 1012.4
20260509154427 79 360 2.6 9.6 0.00 0.01 0.01 83 1012.4
20260509154331 79 360 2.6 9.6 0.00 0.01 0.01 84 1012.4
20260509154231 78 360 2.6 9.6 0.00 0.01 0.01 84 1012.4
20260509154132 78 360 3.5 9.6 0.00 0.01 0.01 84 1012.5
20260509154031 78 360 3.5 9.6 0.00 0.01 0.01 84 1012.4
20260509153932 78 360 3.5 9.6 0.00 0.01 0.01 85 1012.5
20260509153830 78 360 3.5 9.6 0.00 0.01 0.01 85 1012.4
20260509153733 78 360 3.5 9.6 0.00 0.01 0.01 85 1012.5
20260509153633 78 360 3.5 10.4 0.00 0.01 0.01 85 1012.5
20260509153534 78 360 3.5 10.4 0.00 0.01 0.01 87 1012.5
20260509153434 78 360 2.6 10.4 0.00 0.01 0.01 87 1012.5
20260509153333 78 360 3.5 10.4 0.00 0.01 0.01 87 1012.5
20260509153233 78 360 3.5 10.4 0.00 0.01 0.01 87 1012.5
20260509153134 78 360 3.5 10.4 0.00 0.01 0.01 87 1012.5
20260509153017 78 360 3.5 10.4 0.00 0.01 0.01 87 1012.5
20260509152938 78 360 2.6 10.4 0.00 0.01 0.01 89 1012.5
20260509152819 77 360 2.6 10.4 0.00 0.01 0.01 89 1012.5
20260509152718 77 360 3.5 10.4 0.00 0.01 0.01 90 1012.5
20260509152618 77 360 3.5 10.4 0.00 0.01 0.01 90 1012.5
20260509152519 76 360 3.5 10.4 0.00 0.01 0.01 90 1012.5
20260509152438 76 360 4.3 10.4 0.00 0.01 0.01 91 1012.5
20260509152319 76 360 5.2 10.4 0.00 0.01 0.01 90 1012.6
20260509152243 76 360 5.2 10.4 0.00 0.01 0.01 91 1012.6
20260509152123 75 360 5.2 9.6 0.00 0.01 0.01 91 1012.6
20260509152021 75 360 4.3 8.7 0.00 0.01 0.01 91 1012.6
20260509151921 75 360 4.3 8.7 0.00 0.01 0.01 91 1012.6
20260509151820 75 360 3.5 9.6 0.00 0.01 0.01 92 1012.6
20260509151719 75 360 3.5 9.6 0.00 0.01 0.01 92 1012.6
20260509151641 75 360 2.6 9.6 0.00 0.01 0.01 92 1012.5
20260509151520 75 360 3.5 9.6 0.00 0.01 0.01 92 1012.7
20260509151424 75 360 3.5 9.6 0.00 0.01 0.01 92 1012.6
20260509151345 74 360 3.5 9.6 0.00 0.01 0.01 92 1012.6
20260509151224 74 360 4.3 9.6 0.00 0.01 0.01 92 1012.5
20260509151125 74 360 5.2 9.6 0.00 0.01 0.01 92 1012.4
20260509151024 74 360 5.2 9.6 0.00 0.01 0.01 92 1012.4
20260509150926 74 360 5.2 9.6 0.00 0.01 0.01 92 1012.4
20260509150826 74 360 5.2 9.6 0.00 0.01 0.01 92 1012.4
20260509150726 74 360 3.5 8.7 0.00 0.01 0.01 93 1012.5
20260509150630 74 360 3.5 7.8 0.00 0.01 0.01 93 1012.5
20260509150532 74 360 2.6 5.2 0.00 0.01 0.01 93 1012.4
20260509150432 74 360 2.6 5.2 0.00 0.01 0.01 93 1012.5
20260509150333 74 360 2.6 5.2 0.00 0.01 0.01 93 1012.5
20260509150232 74 360 2.6 5.2 0.00 0.01 0.01 93 1012.5
20260509150133 74 360 1.7 7.8 0.00 0.01 0.01 93 1012.6
20260509150037 74 360 1.7 7.8 0.00 0.01 0.01 93 1012.6
20260509145917 74 360 1.7 7.8 0.00 0.01 0.01 93 1012.6
20260509145837 74 360 2.6 9.6 0.00 0.01 0.01 93 1012.6
20260509145737 74 360 2.6 9.6 0.00 0.01 0.01 93 1012.5
20260509145616 74 360 4.3 9.6 0.00 0.01 0.01 93 1012.4
20260509145516 73 360 4.3 9.6 0.00 0.01 0.01 93 1012.3
20260509145417 73 360 5.2 9.6 0.00 0.01 0.01 93 1012.3
20260509145337 73 360 5.2 11.3 0.00 0.01 0.01 93 1012.3
20260509145221 73 360 5.2 12.2 0.00 0.01 0.01 93 1012.3
20260509145122 73 360 5.2 12.2 0.00 0.01 0.01 93 1012.3
20260509145024 73 360 5.2 12.2 0.00 0.01 0.01 93 1012.3
20260509144925 73 360 6.1 12.2 0.00 0.01 0.01 93 1012.3
20260509144824 73 360 6.1 12.2 0.00 0.01 0.01 93 1012.3
20260509144725 73 360 7.0 12.2 0.00 0.01 0.01 93 1012.2
20260509144629 73 360 7.0 12.2 0.00 0.01 0.01 93 1012.2
20260509144531 73 360 7.0 12.2 0.00 0.01 0.01 93 1012.1
20260509144431 73 360 7.0 12.2 0.00 0.01 0.01 93 1012.1
20260509144331 73 360 6.1 11.3 0.00 0.01 0.01 93 1012.2
20260509144232 73 360 5.2 11.3 0.00 0.01 0.01 93 1012.1
20260509144131 73 360 4.3 11.3 0.00 0.01 0.01 93 1012.0
20260509144032 73 360 4.3 11.3 0.00 0.01 0.01 93 1012.1
20260509143936 73 360 4.3 11.3 0.00 0.01 0.01 93 1012.0
20260509143836 73 360 5.2 11.3 0.00 0.01 0.01 93 1012.1
20260509143716 73 360 5.2 11.3 0.00 0.01 0.01 93 1012.0
20260509143617 73 360 6.1 11.3 0.00 0.01 0.01 93 1012.1
20260509143518 73 360 6.1 11.3 0.00 0.01 0.01 93 1012.1
20260509143418 73 360 7.0 11.3 0.00 0.01 0.01 93 1012.1
20260509143320 73 360 6.1 11.3 0.00 0.01 0.01 93 1012.0
20260509143224 73 360 7.0 11.3 0.00 0.01 0.01 94 1011.9
20260509143125 73 360 5.2 10.4 0.00 0.01 0.01 94 1011.9
20260509143025 73 360 4.3 10.4 0.00 0.01 0.01 94 1011.9
20260509142926 73 360 4.3 11.3 0.00 0.01 0.01 94 1011.8
20260509142826 73 360 4.3 11.3 0.00 0.01 0.01 94 1011.8
20260509142726 73 360 5.2 13.9 0.00 0.01 0.01 94 1011.8
20260509142630 73 360 6.1 13.9 0.00 0.01 0.01 94 1011.8
20260509142531 73 360 7.0 13.9 0.00 0.01 0.01 94 1011.9
20260509142431 73 360 7.0 13.9 0.00 0.01 0.01 94 1011.9
20260509142331 73 360 7.0 13.9 0.00 0.01 0.01 94 1011.9
20260509142230 73 360 7.8 13.9 0.00 0.01 0.01 94 1011.9
20260509142131 73 360 7.0 13.9 0.00 0.01 0.01 94 1012.1
20260509142031 73 360 7.0 13.9 0.00 0.01 0.01 94 1012.0
20260509141915 73 360 6.1 13.9 0.00 0.01 0.01 94 1012.0
20260509141835 73 360 7.0 13.0 0.00 0.01 0.01 94 1012.0
20260509141716 73 360 7.0 13.0 0.00 0.01 0.01 94 1011.9
20260509141617 73 360 7.8 13.0 0.00 0.01 0.01 94 1011.8
20260509141537 73 360 7.0 13.0 0.00 0.01 0.01 94 1011.8
20260509141437 73 360 6.1 13.0 0.00 0.01 0.01 94 1011.7
20260509141316 73 360 6.1 13.0 0.00 0.01 0.01 94 1011.7
20260509141222 73 360 6.1 13.0 0.00 0.01 0.01 94 1011.7
20260509141122 73 360 6.1 10.4 0.00 0.01 0.01 94 1011.6
20260509141022 73 360 7.0 10.4 0.00 0.01 0.01 94 1011.6
20260509140923 73 360 7.8 10.4 0.00 0.01 0.01 94 1011.7
20260509140823 73 360 7.8 10.4 0.00 0.01 0.01 94 1011.7
20260509140723 73 360 7.8 9.6 0.00 0.01 0.01 94 1011.7
20260509140644 73 360 7.0 9.6 0.00 0.01 0.01 94 1011.7
20260509140528 73 360 6.1 9.6 0.00 0.01 0.01 94 1011.7
20260509140428 73 360 5.2 8.7 0.00 0.01 0.01 94 1011.6
20260509140328 73 360 5.2 8.7 0.00 0.01 0.01 94 1011.6
20260509140229 73 360 3.5 7.8 0.00 0.01 0.01 94 1011.6
20260509140149 73 360 3.5 7.8 0.00 0.01 0.01 94 1011.6
20260509140030 73 360 3.5 7.8 0.00 0.01 0.01 94 1011.6
20260509135950 73 360 2.6 7.8 0.00 0.01 0.01 95 1011.6
20260509135828 73 360 2.6 7.0 0.00 0.01 0.01 94 1011.6
20260509135732 73 360 2.6 5.2 0.00 0.01 0.01 94 1011.6
20260509135632 73 360 2.6 5.2 0.00 0.01 0.01 94 1011.6
20260509135532 73 360 2.6 5.2 0.00 0.01 0.01 94 1011.5
20260509135432 73 360 2.6 4.3 0.00 0.01 0.01 94 1011.6
20260509135333 73 360 1.7 4.3 0.00 0.01 0.01 94 1011.6
20260509135233 73 360 1.7 4.3 0.00 0.01 0.01 94 1011.6
20260509135134 72 360 1.7 4.3 0.00 0.01 0.01 94 1011.7
20260509135018 72 360 1.7 2.6 0.00 0.01 0.01 94 1011.8
20260509134918 72 360 0.9 2.6 0.00 0.01 0.01 94 1011.8
20260509134818 72 360 0.9 2.6 0.00 0.01 0.01 94 1011.9
20260509134718 72 360 0.9 2.6 0.00 0.01 0.01 94 1011.9
20260509134618 73 360 0.9 2.6 0.00 0.01 0.01 94 1012.0
20260509134538 73 360 0.0 1.7 0.00 0.01 0.01 94 1012.0
20260509134418 73 360 0.0 4.3 0.00 0.01 0.01 94 1012.0
20260509134338 73 360 0.0 4.3 0.00 0.01 0.01 94 1012.1
20260509134222 73 360 0.0 4.3 0.00 0.01 0.01 94 1012.1
20260509134124 73 360 0.0 8.7 0.00 0.01 0.01 94 1012.1
20260509134045 73 360 0.9 8.7 0.00 0.01 0.01 94 1012.1
20260509133923 73 360 0.9 8.7 0.00 0.01 0.01 94 1012.0
20260509133824 73 360 1.7 8.7 0.00 0.01 0.01 94 1012.1
20260509133744 73 360 1.7 8.7 0.00 0.01 0.01 94 1012.1
20260509133624 73 360 1.7 8.7 0.00 0.01 0.01 94 1012.1
20260509133528 73 360 2.6 8.7 0.00 0.01 0.01 94 1012.1
20260509133428 73 360 3.5 8.7 0.00 0.01 0.01 94 1012.1
20260509133349 73 360 4.3 8.7 0.00 0.01 0.01 94 1012.1
20260509133229 73 360 4.3 8.7 0.00 0.01 0.01 94 1012.1
20260509133128 73 360 4.3 8.7 0.00 0.01 0.01 94 1012.1
20260509133027 73 360 3.5 7.0 0.00 0.01 0.01 94 1012.1
20260509132927 73 360 2.6 7.0 0.00 0.01 0.01 94 1012.1
20260509132828 73 360 2.6 5.2 0.00 0.01 0.01 94 1012.0
20260509132730 73 360 3.5 5.2 0.00 0.01 0.01 94 1012.1
20260509132633 73 360 3.5 5.2 0.00 0.01 0.01 94 1012.1
20260509132534 72 360 2.6 5.2 0.00 0.01 0.01 94 1012.1
20260509132434 72 360 2.6 5.2 0.00 0.01 0.01 94 1012.2
20260509132335 72 360 1.7 5.2 0.00 0.01 0.01 94 1012.2
20260509132236 72 360 1.7 5.2 0.00 0.01 0.01 94 1012.2
20260509132156 72 360 1.7 5.2 0.00 0.01 0.01 94 1012.3
20260509132056 72 360 2.6 5.2 0.00 0.01 0.01 94 1012.3
20260509131919 72 360 3.5 5.2 0.00 0.01 0.01 94 1012.4
20260509131820 72 360 3.5 5.2 0.00 0.01 0.01 94 1012.4
20260509131721 72 360 3.5 5.2 0.00 0.01 0.01 94 1012.4
20260509131621 72 360 2.6 5.2 0.00 0.01 0.01 94 1012.5
20260509131542 72 360 2.6 5.2 0.00 0.01 0.01 94 1012.4
20260509131421 72 360 1.7 5.2 0.00 0.01 0.01 94 1012.4
20260509131322 72 360 2.6 5.2 0.00 0.01 0.01 94 1012.5
20260509131226 72 360 2.6 5.2 0.00 0.01 0.01 94 1012.4
20260509131127 72 336 2.6 5.2 0.00 0.01 0.01 94 1012.4
20260509131048 72 360 2.6 5.2 0.00 0.01 0.01 94 1012.4
20260509130927 72 18 3.5 5.2 0.00 0.01 0.01 94 1012.4
20260509130827 72 360 3.5 5.2 0.00 0.01 0.01 94 1012.2
20260509130747 72 360 3.5 5.2 0.00 0.01 0.01 94 1012.1
20260509130627 72 360 3.5 7.0 0.00 0.01 0.01 94 1012.1
20260509130533 72 360 2.6 7.0 0.00 0.01 0.01 94 1012.1
20260509130433 72 360 2.6 7.0 0.00 0.01 0.01 94 1012.0
20260509130333 72 347 2.6 7.0 0.00 0.01 0.01 94 1012.0
20260509130233 72 303 2.6 7.0 0.00 0.01 0.01 94 1012.0
20260509130134 72 360 3.5 7.0 0.00 0.01 0.01 94 1012.0
20260509130035 72 360 3.5 7.0 0.00 0.01 0.01 94 1011.9
20260509125934 72 360 3.5 7.0 0.00 0.01 0.01 94 1012.0
20260509125820 72 360 4.3 7.0 0.00 0.01 0.01 94 1012.0
20260509125719 72 360 3.5 7.0 0.00 0.01 0.01 94 1012.0
20260509125620 72 360 3.5 6.1 0.00 0.01 0.01 94 1012.0
20260509125541 72 360 3.5 6.1 0.00 0.01 0.01 94 1012.0
20260509125440 72 360 2.6 4.3 0.00 0.01 0.01 94 1011.9
20260509125319 72 360 2.6 3.5 0.00 0.01 0.01 94 1011.9
20260509125220 72 360 1.7 3.5 0.00 0.01 0.01 94 1011.9
20260509125125 72 360 0.9 2.6 0.00 0.01 0.01 94 1011.9
20260509125025 72 360 0.9 2.6 0.00 0.01 0.01 94 1011.9
20260509124925 72 360 0.0 1.7 0.00 0.01 0.01 94 1011.8
20260509124825 72 360 0.0 1.7 0.00 0.01 0.01 94 1011.8
20260509124726 72 360 0.0 1.7 0.00 0.01 0.01 94 1011.8
20260509124627 72 360 0.0 1.7 0.00 0.01 0.01 94 1011.8
20260509124548 72 360 0.0 1.7 0.00 0.01 0.01 94 1011.8
20260509124431 72 360 0.9 1.7 0.00 0.01 0.01 94 1011.8
20260509124351 72 360 0.9 1.7 0.00 0.01 0.01 94 1011.8
20260509124231 72 360 0.9 1.7 0.00 0.01 0.01 94 1011.8
20260509124132 72 360 0.0 1.7 0.00 0.01 0.01 94 1011.9
20260509124032 72 360 0.0 1.7 0.00 0.01 0.01 94 1011.8
20260509123933 72 360 0.9 1.7 0.00 0.01 0.01 94 1011.9
20260509123834 72 360 0.9 1.7 0.00 0.01 0.01 94 1011.9
20260509123718 72 360 0.9 1.7 0.00 0.01 0.01 94 1011.9
20260509123619 72 360 0.9 1.7 0.00 0.01 0.01 94 1011.8
20260509123540 72 360 0.9 1.7 0.00 0.01 0.01 94 1011.8
20260509123419 72 360 0.9 1.7 0.00 0.01 0.01 94 1011.8
20260509123320 72 360 0.9 1.7 0.00 0.01 0.01 94 1011.8
20260509123221 72 360 0.9 3.5 0.00 0.01 0.01 94 1011.7
20260509123123 72 360 0.0 3.5 0.00 0.01 0.01 94 1011.8
20260509123027 72 360 0.0 3.5 0.00 0.01 0.01 94 1011.8
20260509122928 72 360 0.9 3.5 0.00 0.01 0.01 94 1011.8
20260509122828 72 360 0.9 3.5 0.00 0.01 0.01 94 1011.8
20260509122729 72 360 0.9 3.5 0.00 0.01 0.01 94 1011.8
20260509122629 72 360 1.7 3.5 0.00 0.01 0.01 94 1011.7
20260509122549 72 360 1.7 3.5 0.00 0.01 0.01 94 1011.7
20260509122428 72 360 1.7 3.5 0.00 0.01 0.01 94 1011.7
20260509122333 72 360 1.7 3.5 0.00 0.01 0.01 94 1011.6
20260509122234 72 360 1.7 3.5 0.00 0.01 0.01 94 1011.6
20260509122134 72 360 0.9 3.5 0.00 0.01 0.01 94 1011.6
20260509122055 72 360 0.9 3.5 0.00 0.01 0.01 94 1011.7
20260509121934 72 360 0.9 2.6 0.00 0.01 0.01 94 1011.7
20260509121835 72 360 0.9 2.6 0.00 0.01 0.01 94 1011.8
20260509121719 72 360 0.9 2.6 0.00 0.01 0.01 94 1011.9
20260509121640 72 360 0.9 2.6 0.00 0.01 0.01 94 1011.9
20260509121519 72 360 0.0 1.7 0.00 0.01 0.01 94 1012.0
20260509121419 72 360 0.0 0.0 0.00 0.01 0.01 94 1012.0
20260509121320 72 360 0.0 1.7 0.00 0.01 0.01 94 1011.9
20260509121221 72 360 0.0 1.7 0.00 0.01 0.01 94 1011.9
20260509121121 72 360 0.0 1.7 0.00 0.01 0.01 94 1012.0
20260509121025 72 360 0.0 1.7 0.00 0.01 0.01 94 1012.0
20260509120926 72 360 0.0 1.7 0.00 0.01 0.01 94 1012.0
20260509120827 72 360 0.0 1.7 0.00 0.01 0.01 94 1011.9
20260509120728 72 360 0.0 1.7 0.00 0.01 0.01 94 1011.9
20260509120648 72 360 0.0 1.7 0.00 0.01 0.01 94 1011.9
20260509120528 72 360 0.0 1.7 0.00 0.01 0.01 94 1011.9
20260509120427 72 360 0.9 1.7 0.00 0.01 0.01 94 1011.8
20260509120347 72 360 0.9 1.7 0.00 0.01 0.01 94 1011.8
20260509120251 72 360 0.9 1.7 0.00 0.01 0.01 94 1011.8
20260509120131 72 360 0.9 1.7 0.00 0.01 0.01 94 1011.7
20260509120028 72 360 0.0 1.7 0.00 0.01 0.01 94 1011.9
20260509115929 72 360 0.0 2.6 0.00 0.01 0.01 94 1011.8
20260509115850 72 360 0.0 2.6 0.00 0.01 0.01 94 1011.8
20260509115730 72 360 0.0 2.6 0.00 0.01 0.01 94 1011.9
20260509115630 72 360 0.0 2.6 0.00 0.01 0.01 94 1011.8
20260509115535 72 360 0.9 2.6 0.00 0.01 0.01 94 1011.9
20260509115455 72 360 0.9 2.6 0.00 0.01 0.01 94 1011.9
20260509115334 72 360 0.9 2.6 0.00 0.01 0.01 94 1011.8
20260509115235 72 360 0.9 2.6 0.00 0.01 0.01 94 1011.9
20260509115155 72 360 1.7 2.6 0.00 0.01 0.01 94 1011.9
20260509115035 72 360 1.7 2.6 0.00 0.01 0.01 94 1011.9
20260509114955 72 360 1.7 5.2 0.00 0.01 0.01 94 1011.8
20260509114835 72 316 0.9 5.2 0.00 0.01 0.01 94 1011.8
20260509114719 72 360 0.9 5.2 0.00 0.01 0.01 94 1011.9
20260509114619 72 360 0.9 5.2 0.00 0.01 0.01 94 1011.8
20260509114520 72 315 0.9 7.0 0.00 0.01 0.01 94 1011.9
20260509114421 72 360 0.9 7.8 0.00 0.01 0.01 94 1011.9
20260509114322 72 360 1.7 7.8 0.00 0.01 0.01 94 1011.9
20260509114243 72 360 1.7 7.8 0.00 0.01 0.01 94 1011.9
20260509114116 72 360 2.6 7.8 0.00 0.01 0.01 94 1012.0
20260509114020 72 360 3.5 7.8 0.00 0.01 0.01 94 1012.0
20260509113920 72 360 4.3 7.8 0.00 0.01 0.01 94 1012.2
20260509113821 72 360 4.3 7.8 0.00 0.01 0.01 94 1012.2
20260509113723 72 360 4.3 7.8 0.00 0.01 0.01 94 1012.2
20260509113624 72 360 4.3 7.8 0.00 0.01 0.01 94 1012.3
20260509113545 72 360 3.5 7.0 0.00 0.01 0.01 94 1012.3
20260509113424 72 360 2.6 5.2 0.00 0.01 0.01 94 1012.4
20260509113348 72 360 2.6 5.2 0.00 0.01 0.01 94 1012.4
20260509113228 72 360 2.6 4.3 0.00 0.01 0.01 93 1012.4
20260509113147 72 360 2.6 4.3 0.00 0.01 0.01 94 1012.4
20260509113027 72 360 2.6 3.5 0.00 0.01 0.01 93 1012.5
20260509112928 72 360 2.6 3.5 0.00 0.01 0.01 93 1012.6
20260509112828 72 360 2.6 3.5 0.00 0.01 0.01 94 1012.5
20260509112729 72 360 2.6 3.5 0.00 0.01 0.01 94 1012.5
20260509112646 72 360 1.7 3.5 0.00 0.01 0.01 93 1012.6
20260509112526 72 360 1.7 3.5 0.00 0.01 0.01 93 1012.6
20260509112430 72 360 0.9 2.6 0.00 0.01 0.01 93 1012.6
20260509112331 72 360 0.9 2.6 0.00 0.01 0.01 93 1012.6
20260509112252 72 360 0.0 2.6 0.00 0.01 0.01 93 1012.6
20260509112130 72 315 0.0 2.6 0.00 0.01 0.01 93 1012.6
20260509112031 72 315 0.0 2.6 0.00 0.01 0.01 93 1012.5
20260509111951 72 360 0.0 2.6 0.00 0.01 0.01 93 1012.6
20260509111830 72 360 0.0 2.6 0.00 0.01 0.01 93 1012.5
20260509111730 72 360 0.9 2.6 0.00 0.01 0.01 93 1012.6
20260509111634 72 360 0.9 2.6 0.00 0.01 0.01 93 1012.5
20260509111535 72 360 0.9 4.3 0.00 0.01 0.01 93 1012.5
20260509111435 72 360 0.9 4.3 0.00 0.01 0.01 93 1012.5
20260509111336 72 360 0.9 4.3 0.00 0.01 0.01 93 1012.5
20260509111218 72 360 0.9 4.3 0.00 0.01 0.01 93 1012.6
20260509111119 72 360 1.7 4.3 0.00 0.01 0.01 93 1012.7
20260509111023 72 360 1.7 4.3 0.00 0.01 0.01 93 1012.6
20260509110924 72 360 1.7 5.2 0.00 0.01 0.01 93 1012.7
20260509110824 72 360 1.7 5.2 0.00 0.01 0.01 93 1012.7
20260509110745 72 360 1.7 5.2 0.00 0.01 0.01 93 1012.7
20260509110625 72 360 0.9 5.2 0.00 0.01 0.01 93 1012.7
20260509110525 72 360 1.7 5.2 0.00 0.01 0.01 93 1012.6
20260509110446 72 360 1.7 5.2 0.00 0.01 0.01 93 1012.7
20260509110330 72 360 1.7 5.2 0.00 0.01 0.01 93 1012.7
20260509110230 72 360 1.7 5.2 0.00 0.01 0.01 93 1012.7
20260509110130 72 360 2.6 5.2 0.00 0.01 0.01 93 1012.8
20260509110032 72 360 2.6 5.2 0.00 0.01 0.01 93 1012.8
20260509105931 72 360 2.6 4.3 0.00 0.01 0.01 93 1012.8
20260509105851 72 360 2.6 4.3 0.00 0.01 0.01 93 1012.8
20260509105750 72 360 2.6 4.3 0.00 0.01 0.01 93 1012.8
20260509105629 72 360 2.6 4.3 0.00 0.01 0.01 93 1012.8
20260509105549 72 360 2.6 5.2 0.00 0.01 0.01 93 1012.9
20260509105452 72 360 2.6 5.2 0.00 0.01 0.01 93 1012.9
20260509105352 72 346 2.6 5.2 0.00 0.01 0.01 93 1012.9
20260509105231 72 360 1.7 5.2 0.00 0.01 0.01 93 1012.9
20260509105132 72 360 2.6 5.2 0.00 0.01 0.01 93 1012.8
20260509105032 72 360 2.6 5.2 0.00 0.01 0.01 93 1012.8
20260509104933 72 360 2.6 5.2 0.00 0.01 0.01 93 1012.8
20260509104833 72 360 2.6 5.2 0.00 0.01 0.01 93 1012.8
20260509104718 72 360 2.6 5.2 0.00 0.01 0.01 93 1012.7
20260509104618 72 360 2.6 4.3 0.00 0.01 0.01 93 1012.7
20260509104518 72 360 2.6 4.3 0.00 0.01 0.01 93 1012.8
20260509104419 72 360 2.6 4.3 0.00 0.01 0.01 93 1012.8
20260509104319 72 22 2.6 4.3 0.00 0.01 0.01 93 1012.8
20260509104219 72 360 3.5 4.3 0.00 0.01 0.01 93 1012.9
20260509104123 72 360 2.6 4.3 0.00 0.01 0.01 93 1012.9
20260509104024 72 360 2.6 4.3 0.00 0.01 0.01 93 1012.9
20260509103924 72 11 2.6 4.3 0.00 0.01 0.01 93 1013.0
20260509103846 72 360 2.6 4.3 0.00 0.01 0.01 93 1012.9
20260509103725 72 360 2.6 4.3 0.00 0.01 0.01 93 1012.9
20260509103624 72 360 2.6 4.3 0.00 0.01 0.01 93 1012.9
20260509103524 72 360 3.5 4.3 0.00 0.01 0.01 93 1012.8
20260509103425 72 360 3.5 4.3 0.00 0.01 0.01 93 1012.8
20260509103330 72 360 3.5 4.3 0.00 0.01 0.01 93 1012.8
20260509103249 72 360 2.6 4.3 0.00 0.01 0.01 93 1012.8
20260509103128 72 360 2.6 4.3 0.00 0.01 0.01 93 1012.8
20260509103028 72 360 2.6 4.3 0.00 0.01 0.01 93 1012.8
20260509102929 72 360 2.6 3.5 0.00 0.01 0.01 93 1012.8
20260509102830 72 360 2.6 3.5 0.00 0.01 0.01 93 1012.8
20260509102730 72 360 2.6 4.3 0.00 0.01 0.01 93 1012.8
20260509102650 72 360 2.6 4.3 0.00 0.01 0.01 93 1012.8
20260509102555 72 360 2.6 4.3 0.00 0.01 0.01 93 1012.8
20260509102434 72 360 2.6 4.3 0.00 0.01 0.01 93 1012.7
20260509102334 72 360 2.6 4.3 0.00 0.01 0.01 93 1012.7
20260509102233 72 360 2.6 4.3 0.00 0.01 0.01 93 1012.7
20260509102133 72 360 2.6 4.3 0.00 0.01 0.01 93 1012.7
20260509102054 72 360 2.6 4.3 0.00 0.01 0.01 93 1012.6
20260509101934 72 360 2.6 4.3 0.00 0.01 0.01 93 1012.6
20260509101818 72 360 2.6 3.5 0.00 0.01 0.01 93 1012.6
20260509101719 72 360 2.6 3.5 0.00 0.01 0.01 93 1012.5
20260509101619 72 360 1.7 3.5 0.00 0.01 0.01 93 1012.5
20260509101520 72 360 1.7 2.6 0.00 0.01 0.01 93 1012.5
20260509101420 72 360 0.9 2.6 0.00 0.01 0.01 93 1012.4
20260509101320 72 360 0.9 2.6 0.00 0.01 0.01 93 1012.5
20260509101220 72 360 0.0 2.6 0.00 0.01 0.01 93 1012.3
20260509101125 72 360 0.0 2.6 0.00 0.01 0.01 93 1012.2
20260509101025 72 360 0.9 2.6 0.00 0.01 0.01 93 1012.3
20260509100926 72 360 0.9 2.6 0.00 0.01 0.01 93 1012.3
20260509100826 72 360 0.9 2.6 0.00 0.01 0.01 93 1012.1
20260509100725 72 360 1.7 2.6 0.00 0.01 0.01 93 1011.9
20260509100626 72 360 1.7 2.6 0.00 0.01 0.01 93 1011.9
20260509100531 72 360 1.7 3.5 0.00 0.01 0.01 93 1011.9
20260509100451 72 360 1.7 3.5 0.00 0.01 0.01 93 1011.8
20260509100331 72 130 1.7 3.5 0.00 0.01 0.01 93 1011.8
20260509100230 72 360 1.7 3.5 0.00 0.01 0.01 92 1011.7
20260509100151 72 360 1.7 3.5 0.00 0.01 0.01 92 1011.7
20260509100028 72 360 1.7 3.5 0.00 0.01 0.01 92 1011.6
20260509095947 72 360 1.7 3.5 0.00 0.01 0.01 92 1011.6
20260509095826 72 360 1.7 3.5 0.00 0.01 0.01 92 1011.6
20260509095729 72 360 1.7 3.5 0.00 0.01 0.01 92 1011.5
20260509095652 72 360 1.7 3.5 0.00 0.01 0.01 93 1011.5
20260509095531 72 360 1.7 3.5 0.00 0.01 0.01 93 1011.5
20260509095432 72 360 1.7 3.5 0.00 0.01 0.01 93 1011.6
20260509095334 72 360 1.7 3.5 0.00 0.01 0.01 93 1011.6
20260509095235 72 360 1.7 3.5 0.00 0.01 0.01 93 1011.5